Observation data for Fort McKavett on 11/16/2019      Previous  Date       Current Mesonet Observations  Soil Data  Daily Summary Page  Observations in Plain Language
KMC1 160600Z 19002KT 02/M02 A3027 RMK A01 T00181016  RH  078%=      5-min Rain = 0
KMC1 160601Z 20002KT 02/M02 A3027 RMK A01 T00171016  RH  078%=      5-min Rain = 0
KMC1 160602Z 19002KT 02/M02 A3027 RMK A01 T00181016  RH  078%=      5-min Rain = 0
KMC1 160603Z 19002KT 02/M02 A3027 RMK A01 T00171016  RH  078%=      5-min Rain = 0
KMC1 160604Z 19002KT 02/M02 A3027 RMK A01 T00171017  RH  078%=      5-min Rain = 0
KMC1 160605Z 19002KT 02/M02 A3027 RMK A01 T00181016  RH  078%=      5-min Rain = 0
KMC1 160606Z 18002KT 02/M02 A3027 RMK A01 T00181016  RH  078%=      5-min Rain = 0
KMC1 160607Z 18002KT 02/M02 A3027 RMK A01 T00181016  RH  078%=      5-min Rain = 0
KMC1 160608Z 17003KT 02/M02 A3027 RMK A01 T00181016  RH  078%=      5-min Rain = 0
KMC1 160609Z 17003KT 02/M02 A3027 RMK A01 T00181016  RH  078%=      5-min Rain = 0
KMC1 160610Z 17003KT 02/M02 A3027 RMK A01 T00181016  RH  078%=      5-min Rain = 0
KMC1 160611Z 17004KT 02/M02 A3027 RMK A01 T00181016  RH  078%=      5-min Rain = 0
KMC1 160612Z 17004KT 02/M02 A3027 RMK A01 T00181016  RH  078%=      5-min Rain = 0
KMC1 160613Z 17004KT 02/M02 A3027 RMK A01 T00181015  RH  078%=      5-min Rain = 0
KMC1 160614Z 17003KT 02/M02 A3027 RMK A01 T00191015  RH  078%=      5-min Rain = 0
KMC1 160615Z 17004KT 02/M02 A3027 RMK A01 T00191015  RH  078%=      5-min Rain = 0
KMC1 160616Z 17004KT 02/M02 A3027 RMK A01 T00201015  RH  078%=      5-min Rain = 0
KMC1 160617Z 17004KT 02/M02 A3027 RMK A01 T00201015  RH  078%=      5-min Rain = 0
KMC1 160618Z 18004KT 02/M02 A3026 RMK A01 T00191015  RH  078%=      5-min Rain = 0
KMC1 160619Z 18004KT 02/M02 A3026 RMK A01 T00191015  RH  078%=      5-min Rain = 0
KMC1 160620Z 17005KT 02/M02 A3026 RMK A01 T00191015  RH  078%=      5-min Rain = 0
KMC1 160621Z 17005KT 02/M01 A3026 RMK A01 T00201014  RH  078%=      5-min Rain = 0
KMC1 160622Z 17005KT 02/M01 A3026 RMK A01 T00211013  RH  078%=      5-min Rain = 0
KMC1 160623Z 17005KT 02/M01 A3026 RMK A01 T00231012  RH  078%=      5-min Rain = 0
KMC1 160624Z 17005KT 02/M01 A3026 RMK A01 T00241012  RH  077%=      5-min Rain = 0
KMC1 160625Z 17005KT 03/M01 A3026 RMK A01 T00261011  RH  077%=      5-min Rain = 0
KMC1 160626Z 17005KT 03/M01 A3026 RMK A01 T00281010  RH  076%=      5-min Rain = 0
KMC1 160627Z 17005KT 03/M01 A3026 RMK A01 T00291010  RH  076%=      5-min Rain = 0
KMC1 160628Z 17005KT 03/M01 A3026 RMK A01 T00301009  RH  075%=      5-min Rain = 0
KMC1 160629Z 17005KT 03/M01 A3026 RMK A01 T00311009  RH  075%=      5-min Rain = 0
KMC1 160630Z 17005KT 03/M01 A3026 RMK A01 T00321009  RH  075%=      5-min Rain = 0
KMC1 160631Z 16005KT 03/M01 A3026 RMK A01 T00321009  RH  074%=      5-min Rain = 0
KMC1 160632Z 17005KT 03/M01 A3026 RMK A01 T00321009  RH  074%=      5-min Rain = 0
KMC1 160633Z 17005KT 03/M01 A3026 RMK A01 T00321009  RH  074%=      5-min Rain = 0
KMC1 160634Z 17005KT 03/M01 A3026 RMK A01 T00331008  RH  074%=      5-min Rain = 0
KMC1 160635Z 17005KT 03/M01 A3026 RMK A01 T00331008  RH  074%=      5-min Rain = 0
KMC1 160636Z 17005KT 03/M01 A3025 RMK A01 T00331008  RH  074%=      5-min Rain = 0
KMC1 160637Z 16004KT 03/M01 A3025 RMK A01 T00331008  RH  074%=      5-min Rain = 0
KMC1 160638Z 17004KT 03/M01 A3025 RMK A01 T00331008  RH  074%=      5-min Rain = 0
KMC1 160639Z 16004KT 03/M01 A3025 RMK A01 T00331009  RH  074%=      5-min Rain = 0
KMC1 160640Z 16004KT 03/M01 A3025 RMK A01 T00331009  RH  074%=      5-min Rain = 0
KMC1 160641Z 17004KT 03/M01 A3025 RMK A01 T00341008  RH  074%=      5-min Rain = 0
KMC1 160642Z 17004KT 03/M01 A3025 RMK A01 T00341009  RH  074%=      5-min Rain = 0
KMC1 160643Z 17004KT 03/M01 A3025 RMK A01 T00341008  RH  074%=      5-min Rain = 0
KMC1 160644Z 16004KT 03/M01 A3025 RMK A01 T00341008  RH  074%=      5-min Rain = 0
KMC1 160645Z 17004KT 03/M01 A3025 RMK A01 T00331009  RH  074%=      5-min Rain = 0
KMC1 160646Z 17004KT 03/M01 A3025 RMK A01 T00331009  RH  074%=      5-min Rain = 0
KMC1 160647Z 17004KT 03/M01 A3025 RMK A01 T00331008  RH  074%=      5-min Rain = 0
KMC1 160648Z 17004KT 03/M01 A3025 RMK A01 T00331009  RH  074%=      5-min Rain = 0
KMC1 160649Z 17003KT 03/M01 A3025 RMK A01 T00331009  RH  074%=      5-min Rain = 0
KMC1 160650Z 17003KT 03/M01 A3025 RMK A01 T00331009  RH  074%=      5-min Rain = 0
KMC1 160651Z 18003KT 03/M01 A3025 RMK A01 T00321010  RH  074%=      5-min Rain = 0
KMC1 160652Z 18004KT 03/M01 A3025 RMK A01 T00301012  RH  074%=      5-min Rain = 0
KMC1 160653Z 18003KT 03/M01 A3025 RMK A01 T00281013  RH  075%=      5-min Rain = 0
KMC1 160654Z 19003KT 03/M01 A3025 RMK A01 T00261013  RH  075%=      5-min Rain = 0
KMC1 160655Z 19003KT 03/M01 A3025 RMK A01 T00251014  RH  076%=      5-min Rain = 0
KMC1 160656Z 19003KT 02/M01 A3025 RMK A01 T00231014  RH  076%=      5-min Rain = 0
KMC1 160657Z 19003KT 02/M02 A3025 RMK A01 T00211017  RH  076%=      5-min Rain = 0
KMC1 160658Z 18003KT 02/M02 A3025 RMK A01 T00181019  RH  076%=      5-min Rain = 0
KMC1 160659Z 18003KT 02/M02 A3025 RMK A01 T00161021  RH  077%=      5-min Rain = 0
KMC1 160700Z 18003KT 01/M02 A3024 RMK A01 T00131022  RH  078%=      5-min Rain = 0
KMC1 160701Z 18003KT 01/M02 A3024 RMK A01 T00111022  RH  079%=      5-min Rain = 0
KMC1 160702Z 19003KT 01/M02 A3024 RMK A01 T00091022  RH  080%=      5-min Rain = 0
KMC1 160703Z 18003KT 01/M02 A3024 RMK A01 T00071022  RH  081%=      5-min Rain = 0
KMC1 160704Z 18003KT 01/M02 A3024 RMK A01 T00061022  RH  081%=      5-min Rain = 0
KMC1 160705Z 19003KT 00/M02 A3024 RMK A01 T00041023  RH  082%=      5-min Rain = 0
KMC1 160706Z 19003KT 00/M02 A3024 RMK A01 T00031023  RH  082%=      5-min Rain = 0
KMC1 160707Z 20003KT 00/M02 A3024 RMK A01 T00021023  RH  083%=      5-min Rain = 0
KMC1 160708Z 20003KT 00/M02 A3024 RMK A01 T00011023  RH  084%=      5-min Rain = 0
KMC1 160709Z 20002KT 00/02 A3024 RMK A01 T00000-23  RH  084%=      5-min Rain = 0
KMC1 160710Z 20003KT 00/02 A3024 RMK A01 T00-00-24  RH  085%=      5-min Rain = 0
KMC1 160711Z 20002KT M00/M02 A3025 RMK A01 T10011024  RH  085%=      5-min Rain = 0
KMC1 160712Z 21002KT M00/M02 A3024 RMK A01 T10021024  RH  085%=      5-min Rain = 0
KMC1 160713Z 21002KT M00/M02 A3024 RMK A01 T10031024  RH  085%=      5-min Rain = 0
KMC1 160714Z 22002KT M00/M03 A3024 RMK A01 T10031025  RH  086%=      5-min Rain = 0
KMC1 160715Z 21003KT M00/M03 A3024 RMK A01 T10041025  RH  086%=      5-min Rain = 0
KMC1 160716Z 21003KT M01/M03 A3024 RMK A01 T10051025  RH  086%=      5-min Rain = 0
KMC1 160717Z 21003KT M01/M03 A3024 RMK A01 T10051025  RH  086%=      5-min Rain = 0
KMC1 160718Z 21003KT M01/M03 A3024 RMK A01 T10051025  RH  087%=      5-min Rain = 0
KMC1 160719Z 22003KT M01/M03 A3024 RMK A01 T10061026  RH  087%=      5-min Rain = 0
KMC1 160720Z 21003KT M01/M03 A3024 RMK A01 T10061026  RH  087%=      5-min Rain = 0
KMC1 160721Z 21003KT M01/M03 A3024 RMK A01 T10061026  RH  087%=      5-min Rain = 0
KMC1 160722Z 20003KT M01/M03 A3024 RMK A01 T10071026  RH  087%=      5-min Rain = 0
KMC1 160723Z 20003KT M01/M03 A3024 RMK A01 T10071027  RH  087%=      5-min Rain = 0
KMC1 160724Z 20003KT M01/M03 A3024 RMK A01 T10081027  RH  087%=      5-min Rain = 0
KMC1 160725Z 19003KT M01/M03 A3024 RMK A01 T10081026  RH  087%=      5-min Rain = 0
KMC1 160726Z 19003KT M01/M03 A3024 RMK A01 T10081026  RH  087%=      5-min Rain = 0
KMC1 160727Z 19003KT M01/M03 A3024 RMK A01 T10081026  RH  087%=      5-min Rain = 0
KMC1 160728Z 19003KT M01/M03 A3024 RMK A01 T10081026  RH  088%=      5-min Rain = 0
KMC1 160729Z 20003KT M01/M03 A3024 RMK A01 T10081026  RH  088%=      5-min Rain = 0
KMC1 160730Z 19003KT M01/M03 A3024 RMK A01 T10091027  RH  088%=      5-min Rain = 0
KMC1 160731Z 20003KT M01/M03 A3024 RMK A01 T10091026  RH  088%=      5-min Rain = 0
KMC1 160732Z 20003KT M01/M03 A3024 RMK A01 T10091026  RH  088%=      5-min Rain = 0
KMC1 160733Z 20004KT M01/M03 A3024 RMK A01 T10091026  RH  088%=      5-min Rain = 0
KMC1 160734Z 20004KT M01/M03 A3024 RMK A01 T10091026  RH  088%=      5-min Rain = 0
KMC1 160735Z 20003KT M01/M03 A3024 RMK A01 T10091026  RH  088%=      5-min Rain = 0
KMC1 160736Z 20003KT M01/M03 A3024 RMK A01 T10091026  RH  088%=      5-min Rain = 0
KMC1 160737Z 21003KT M01/M03 A3024 RMK A01 T10081026  RH  088%=      5-min Rain = 0
KMC1 160738Z 21003KT M01/M03 A3024 RMK A01 T10091027  RH  088%=      5-min Rain = 0
KMC1 160739Z 21002KT M01/M03 A3024 RMK A01 T10091027  RH  088%=      5-min Rain = 0
KMC1 160740Z 21002KT M01/M03 A3024 RMK A01 T10091027  RH  087%=      5-min Rain = 0
KMC1 160741Z 22002KT M01/M03 A3023 RMK A01 T10091027  RH  087%=      5-min Rain = 0
KMC1 160742Z 22002KT M01/M03 A3023 RMK A01 T10091027  RH  087%=      5-min Rain = 0
KMC1 160743Z 23002KT M01/M03 A3023 RMK A01 T10091027  RH  087%=      5-min Rain = 0
KMC1 160744Z 23003KT M01/M03 A3023 RMK A01 T10091027  RH  088%=      5-min Rain = 0
KMC1 160745Z 22003KT M01/M03 A3023 RMK A01 T10091027  RH  088%=      5-min Rain = 0
KMC1 160746Z 22003KT M01/M03 A3023 RMK A01 T10091026  RH  088%=      5-min Rain = 0
KMC1 160747Z 22003KT M01/M03 A3023 RMK A01 T10081025  RH  088%=      5-min Rain = 0
KMC1 160748Z 21003KT M01/M02 A3023 RMK A01 T10071024  RH  088%=      5-min Rain = 0
KMC1 160749Z 21003KT M01/M03 A3023 RMK A01 T10071025  RH  088%=      5-min Rain = 0
KMC1 160750Z 20004KT M01/M02 A3023 RMK A01 T10071024  RH  088%=      5-min Rain = 0
KMC1 160751Z 20004KT M01/M02 A3023 RMK A01 T10061024  RH  088%=      5-min Rain = 0
KMC1 160752Z 20004KT M01/M02 A3023 RMK A01 T10061024  RH  088%=      5-min Rain = 0
KMC1 160753Z 20004KT M01/M02 A3023 RMK A01 T10061024  RH  088%=      5-min Rain = 0
KMC1 160754Z 20004KT M01/M02 A3023 RMK A01 T10061024  RH  088%=      5-min Rain = 0
KMC1 160755Z 20004KT M01/M02 A3023 RMK A01 T10061024  RH  088%=      5-min Rain = 0
KMC1 160756Z 20004KT M01/M02 A3023 RMK A01 T10061024  RH  088%=      5-min Rain = 0
KMC1 160757Z 20004KT M01/M02 A3023 RMK A01 T10061023  RH  088%=      5-min Rain = 0
KMC1 160758Z 20005KT M01/M02 A3023 RMK A01 T10061023  RH  088%=      5-min Rain = 0
KMC1 160759Z 20004KT M01/M02 A3023 RMK A01 T10061023  RH  088%=      5-min Rain = 0
KMC1 160800Z 20004KT M01/M02 A3023 RMK A01 T10051023  RH  088%=      5-min Rain = 0
KMC1 160801Z 21004KT M01/M02 A3023 RMK A01 T10061023  RH  088%=      5-min Rain = 0
KMC1 160802Z 21004KT M01/M02 A3023 RMK A01 T10051023  RH  088%=      5-min Rain = 0
KMC1 160803Z 20004KT M01/M02 A3023 RMK A01 T10051022  RH  088%=      5-min Rain = 0
KMC1 160804Z 20004KT M00/M02 A3023 RMK A01 T10041021  RH  088%=      5-min Rain = 0
KMC1 160805Z 20004KT M00/M02 A3023 RMK A01 T10031021  RH  088%=      5-min Rain = 0
KMC1 160806Z 20004KT M00/M02 A3023 RMK A01 T10031020  RH  088%=      5-min Rain = 0
KMC1 160807Z 20004KT M00/M02 A3023 RMK A01 T10021020  RH  087%=      5-min Rain = 0
KMC1 160808Z 20004KT M00/M02 A3023 RMK A01 T10011020  RH  087%=      5-min Rain = 0
KMC1 160809Z 20003KT 00/02 A3023 RMK A01 T00-00-20  RH  087%=      5-min Rain = 0
KMC1 160810Z 20004KT M00/M02 A3023 RMK A01 T10011020  RH  087%=      5-min Rain = 0
KMC1 160811Z 20003KT M00/M02 A3023 RMK A01 T10011021  RH  086%=      5-min Rain = 0
KMC1 160812Z 20003KT M00/M02 A3023 RMK A01 T10011020  RH  087%=      5-min Rain = 0
KMC1 160813Z 20003KT 00/02 A3022 RMK A01 T00000-18  RH  088%=      5-min Rain = 0
KMC1 160814Z 20003KT 00/M02 A3022 RMK A01 T00011017  RH  088%=      5-min Rain = 0
KMC1 160815Z 20003KT 00/M02 A3022 RMK A01 T00031016  RH  087%=      5-min Rain = 0
KMC1 160816Z 20003KT 00/M02 A3022 RMK A01 T00041015  RH  087%=      5-min Rain = 0
KMC1 160817Z 20003KT 01/M02 A3022 RMK A01 T00051016  RH  086%=      5-min Rain = 0
KMC1 160818Z 20004KT 01/M02 A3022 RMK A01 T00061016  RH  085%=      5-min Rain = 0
KMC1 160819Z 21004KT 01/M02 A3023 RMK A01 T00061016  RH  085%=      5-min Rain = 0
KMC1 160820Z 21004KT 01/M02 A3023 RMK A01 T00061017  RH  085%=      5-min Rain = 0
KMC1 160821Z 21004KT 01/M02 A3022 RMK A01 T00061017  RH  084%=      5-min Rain = 0
KMC1 160822Z 21004KT 01/M02 A3022 RMK A01 T00061017  RH  085%=      5-min Rain = 0
KMC1 160823Z 21004KT 01/M02 A3022 RMK A01 T00051017  RH  085%=      5-min Rain = 0
KMC1 160824Z 21003KT 01/M02 A3022 RMK A01 T00051016  RH  085%=      5-min Rain = 0
KMC1 160825Z 21003KT 01/M02 A3022 RMK A01 T00051017  RH  085%=      5-min Rain = 0
KMC1 160826Z 21003KT 01/M02 A3022 RMK A01 T00051017  RH  085%=      5-min Rain = 0
KMC1 160827Z 22003KT 01/M02 A3022 RMK A01 T00051017  RH  085%=      5-min Rain = 0
KMC1 160828Z 21003KT 00/M02 A3022 RMK A01 T00041019  RH  085%=      5-min Rain = 0
KMC1 160829Z 21003KT 00/M02 A3022 RMK A01 T00031020  RH  085%=      5-min Rain = 0
KMC1 160830Z 21003KT 00/M02 A3022 RMK A01 T00021021  RH  084%=      5-min Rain = 0
KMC1 160831Z 21003KT 00/02 A3022 RMK A01 T00000-23  RH  084%=      5-min Rain = 0
KMC1 160832Z 21003KT M00/M03 A3022 RMK A01 T10011025  RH  084%=      5-min Rain = 0
KMC1 160833Z 20003KT M00/M03 A3022 RMK A01 T10021026  RH  084%=      5-min Rain = 0
KMC1 160834Z 19003KT M00/M03 A3022 RMK A01 T10041026  RH  085%=      5-min Rain = 0
KMC1 160835Z 19003KT M00/M03 A3022 RMK A01 T10041026  RH  085%=      5-min Rain = 0
KMC1 160836Z 19003KT M01/M03 A3022 RMK A01 T10051026  RH  086%=      5-min Rain = 0
KMC1 160837Z 19003KT M01/M03 A3022 RMK A01 T10051025  RH  087%=      5-min Rain = 0
KMC1 160838Z 19003KT M01/M02 A3022 RMK A01 T10051023  RH  088%=      5-min Rain = 0
KMC1 160839Z 19003KT M01/M02 A3022 RMK A01 T10051021  RH  088%=      5-min Rain = 0
KMC1 160840Z 19003KT M00/M02 A3022 RMK A01 T10041021  RH  089%=      5-min Rain = 0
KMC1 160841Z 19002KT M00/M02 A3022 RMK A01 T10041020  RH  089%=      5-min Rain = 0
KMC1 160842Z 19002KT M00/M02 A3022 RMK A01 T10041020  RH  089%=      5-min Rain = 0
KMC1 160843Z 19002KT M00/M02 A3022 RMK A01 T10041020  RH  089%=      5-min Rain = 0
KMC1 160844Z 20002KT M00/M02 A3022 RMK A01 T10041021  RH  088%=      5-min Rain = 0
KMC1 160845Z 20002KT M01/M02 A3022 RMK A01 T10051023  RH  088%=      5-min Rain = 0
KMC1 160846Z 21002KT M01/M03 A3022 RMK A01 T10071025  RH  087%=      5-min Rain = 0
KMC1 160847Z 22002KT M01/M03 A3022 RMK A01 T10081027  RH  087%=      5-min Rain = 0
KMC1 160848Z 22002KT M01/M03 A3022 RMK A01 T10101028  RH  087%=      5-min Rain = 0
KMC1 160849Z 22002KT M01/M03 A3022 RMK A01 T10111029  RH  087%=      5-min Rain = 0
KMC1 160850Z 22002KT M01/M03 A3022 RMK A01 T10121030  RH  088%=      5-min Rain = 0
KMC1 160851Z 22003KT M01/M03 A3022 RMK A01 T10131030  RH  088%=      5-min Rain = 0
KMC1 160852Z 22003KT M01/M03 A3022 RMK A01 T10141030  RH  089%=      5-min Rain = 0
KMC1 160853Z 22003KT M01/M03 A3022 RMK A01 T10141030  RH  089%=      5-min Rain = 0
KMC1 160854Z 22003KT M02/M03 A3022 RMK A01 T10151030  RH  089%=      5-min Rain = 0
KMC1 160855Z 21003KT M02/M03 A3022 RMK A01 T10151030  RH  090%=      5-min Rain = 0
KMC1 160856Z 21003KT M02/M03 A3022 RMK A01 T10151030  RH  090%=      5-min Rain = 0
KMC1 160857Z 21003KT M02/M03 A3022 RMK A01 T10151029  RH  090%=      5-min Rain = 0
KMC1 160858Z 21003KT M02/M03 A3022 RMK A01 T10151030  RH  090%=      5-min Rain = 0
KMC1 160859Z 21003KT M02/M03 A3022 RMK A01 T10151030  RH  090%=      5-min Rain = 0
KMC1 160900Z 21003KT M02/M03 A3022 RMK A01 T10161030  RH  090%=      5-min Rain = 0
KMC1 160901Z 20003KT M02/M03 A3022 RMK A01 T10151029  RH  090%=      5-min Rain = 0
KMC1 160902Z 20003KT M02/M03 A3022 RMK A01 T10151029  RH  090%=      5-min Rain = 0
KMC1 160903Z 20004KT M02/M03 A3022 RMK A01 T10151029  RH  090%=      5-min Rain = 0
KMC1 160904Z 20004KT M02/M03 A3022 RMK A01 T10151029  RH  091%=      5-min Rain = 0
KMC1 160905Z 20004KT M02/M03 A3022 RMK A01 T10151028  RH  091%=      5-min Rain = 0
KMC1 160906Z 19004KT M02/M03 A3022 RMK A01 T10151028  RH  091%=      5-min Rain = 0
KMC1 160907Z 19003KT M02/M03 A3022 RMK A01 T10151028  RH  091%=      5-min Rain = 0
KMC1 160908Z 19004KT M02/M03 A3022 RMK A01 T10151027  RH  091%=      5-min Rain = 0
KMC1 160909Z 20004KT M02/M03 A3022 RMK A01 T10151026  RH  092%=      5-min Rain = 0
KMC1 160910Z 19004KT M01/M03 A3022 RMK A01 T10141025  RH  092%=      5-min Rain = 0
KMC1 160911Z 19004KT M01/M03 A3022 RMK A01 T10141025  RH  092%=      5-min Rain = 0
KMC1 160912Z 20003KT M01/M03 A3022 RMK A01 T10131025  RH  092%=      5-min Rain = 0
KMC1 160913Z 20004KT M01/M02 A3022 RMK A01 T10131024  RH  092%=      5-min Rain = 0
KMC1 160914Z 19004KT M01/M02 A3022 RMK A01 T10121023  RH  092%=      5-min Rain = 0
KMC1 160915Z 19004KT M01/M02 A3022 RMK A01 T10111023  RH  092%=      5-min Rain = 0
KMC1 160916Z 20004KT M01/M02 A3022 RMK A01 T10111023  RH  092%=      5-min Rain = 0
KMC1 160917Z 19004KT M01/M02 A3022 RMK A01 T10111023  RH  091%=      5-min Rain = 0
KMC1 160918Z 20003KT M01/M02 A3021 RMK A01 T10111024  RH  091%=      5-min Rain = 0
KMC1 160919Z 19003KT M01/M02 A3022 RMK A01 T10111024  RH  091%=      5-min Rain = 0
KMC1 160920Z 20004KT M01/M02 A3022 RMK A01 T10111024  RH  091%=      5-min Rain = 0
KMC1 160921Z 19003KT M01/M02 A3022 RMK A01 T10111024  RH  091%=      5-min Rain = 0
KMC1 160922Z 20003KT M01/M03 A3022 RMK A01 T10111025  RH  091%=      5-min Rain = 0
KMC1 160923Z 20003KT M01/M03 A3022 RMK A01 T10111025  RH  091%=      5-min Rain = 0
KMC1 160924Z 19004KT M01/M03 A3022 RMK A01 T10111025  RH  091%=      5-min Rain = 0
KMC1 160925Z 19003KT M01/M03 A3022 RMK A01 T10111025  RH  091%=      5-min Rain = 0
KMC1 160926Z 19003KT M01/M02 A3022 RMK A01 T10111024  RH  091%=      5-min Rain = 0
KMC1 160927Z 20003KT M01/M02 A3022 RMK A01 T10121024  RH  091%=      5-min Rain = 0
KMC1 160928Z 20004KT M01/M02 A3022 RMK A01 T10121024  RH  091%=      5-min Rain = 0
KMC1 160929Z 20004KT M01/M02 A3022 RMK A01 T10111024  RH  091%=      5-min Rain = 0
KMC1 160930Z 20004KT M01/M02 A3022 RMK A01 T10121024  RH  091%=      5-min Rain = 0
KMC1 160931Z 21003KT M01/M02 A3022 RMK A01 T10111024  RH  091%=      5-min Rain = 0
KMC1 160932Z 21003KT M01/M02 A3022 RMK A01 T10121024  RH  091%=      5-min Rain = 0
KMC1 160933Z 21003KT M01/M02 A3022 RMK A01 T10111024  RH  091%=      5-min Rain = 0
KMC1 160934Z 22003KT M01/M02 A3022 RMK A01 T10111023  RH  092%=      5-min Rain = 0
KMC1 160935Z 22003KT M01/M02 A3022 RMK A01 T10111024  RH  091%=      5-min Rain = 0
KMC1 160936Z 22003KT M01/M02 A3021 RMK A01 T10121024  RH  091%=      5-min Rain = 0
KMC1 160937Z 22003KT M01/M03 A3021 RMK A01 T10121025  RH  091%=      5-min Rain = 0
KMC1 160938Z 22003KT M01/M03 A3021 RMK A01 T10131026  RH  091%=      5-min Rain = 0
KMC1 160939Z 21003KT M01/M03 A3021 RMK A01 T10131026  RH  091%=      5-min Rain = 0
KMC1 160940Z 21003KT M01/M03 A3021 RMK A01 T10131027  RH  091%=      5-min Rain = 0
KMC1 160941Z 21003KT M01/M03 A3021 RMK A01 T10141027  RH  090%=      5-min Rain = 0
KMC1 160942Z 20003KT M01/M03 A3021 RMK A01 T10141028  RH  090%=      5-min Rain = 0
KMC1 160943Z 20002KT M02/M03 A3021 RMK A01 T10151029  RH  090%=      5-min Rain = 0
KMC1 160944Z 20003KT M02/M03 A3021 RMK A01 T10151029  RH  090%=      5-min Rain = 0
KMC1 160945Z 20003KT M02/M03 A3021 RMK A01 T10161029  RH  091%=      5-min Rain = 0
KMC1 160946Z 20003KT M02/M03 A3021 RMK A01 T10161029  RH  091%=      5-min Rain = 0
KMC1 160947Z 20003KT M02/M03 A3021 RMK A01 T10161029  RH  091%=      5-min Rain = 0
KMC1 160948Z 20003KT M02/M03 A3021 RMK A01 T10161029  RH  091%=      5-min Rain = 0
KMC1 160949Z 20003KT M02/M03 A3021 RMK A01 T10171029  RH  091%=      5-min Rain = 0
KMC1 160950Z 20003KT M02/M03 A3021 RMK A01 T10171030  RH  091%=      5-min Rain = 0
KMC1 160951Z 20003KT M02/M03 A3021 RMK A01 T10171030  RH  091%=      5-min Rain = 0
KMC1 160952Z 20003KT M02/M03 A3021 RMK A01 T10171029  RH  091%=      5-min Rain = 0
KMC1 160953Z 21003KT M02/M03 A3021 RMK A01 T10181029  RH  092%=      5-min Rain = 0
KMC1 160954Z 21002KT M02/M03 A3021 RMK A01 T10181030  RH  092%=      5-min Rain = 0
KMC1 160955Z 21002KT M02/M03 A3021 RMK A01 T10181030  RH  092%=      5-min Rain = 0
KMC1 160956Z 22002KT M02/M03 A3021 RMK A01 T10191031  RH  092%=      5-min Rain = 0
KMC1 160957Z 22002KT M02/M03 A3021 RMK A01 T10191031  RH  092%=      5-min Rain = 0
KMC1 160958Z 22002KT M02/M03 A3021 RMK A01 T10201031  RH  092%=      5-min Rain = 0
KMC1 160959Z 22003KT M02/M03 A3021 RMK A01 T10201031  RH  092%=      5-min Rain = 0
KMC1 161000Z 21003KT M02/M03 A3021 RMK A01 T10201031  RH  092%=      5-min Rain = 0
KMC1 161001Z 21003KT M02/M03 A3021 RMK A01 T10201031  RH  092%=      5-min Rain = 0
KMC1 161002Z 21003KT M02/M03 A3021 RMK A01 T10201030  RH  093%=      5-min Rain = 0
KMC1 161003Z 21002KT M02/M03 A3021 RMK A01 T10201030  RH  093%=      5-min Rain = 0
KMC1 161004Z 21002KT M02/M03 A3021 RMK A01 T10201030  RH  093%=      5-min Rain = 0
KMC1 161005Z 21002KT M02/M03 A302 RMK A01 T10201029  RH  093%=      5-min Rain = 0
KMC1 161006Z 21002KT M02/M03 A302 RMK A01 T10201029  RH  093%=      5-min Rain = 0
KMC1 161007Z 21003KT M02/M03 A302 RMK A01 T10201029  RH  093%=      5-min Rain = 0
KMC1 161008Z 21003KT M02/M03 A302 RMK A01 T10201029  RH  093%=      5-min Rain = 0
KMC1 161009Z 20003KT M02/M03 A302 RMK A01 T10201030  RH  093%=      5-min Rain = 0
KMC1 161010Z 20003KT M02/M03 A302 RMK A01 T10201030  RH  093%=      5-min Rain = 0
KMC1 161011Z 20002KT M02/M03 A302 RMK A01 T10201029  RH  093%=      5-min Rain = 0
KMC1 161012Z 19002KT M02/M03 A302 RMK A01 T10201029  RH  093%=      5-min Rain = 0
KMC1 161013Z 20002KT M02/M03 A302 RMK A01 T10201029  RH  094%=      5-min Rain = 0
KMC1 161014Z 20002KT M02/M03 A302 RMK A01 T10201029  RH  094%=      5-min Rain = 0
KMC1 161015Z 20002KT M02/M03 A302 RMK A01 T10191028  RH  094%=      5-min Rain = 0
KMC1 161016Z 22002KT M02/M03 A302 RMK A01 T10191028  RH  094%=      5-min Rain = 0
KMC1 161017Z 23002KT M02/M03 A302 RMK A01 T10191028  RH  093%=      5-min Rain = 0
KMC1 161018Z 24002KT M02/M03 A302 RMK A01 T10191029  RH  093%=      5-min Rain = 0
KMC1 161019Z 24001KT M02/M03 A302 RMK A01 T10201030  RH  093%=      5-min Rain = 0
KMC1 161020Z 24002KT M02/M03 A302 RMK A01 T10201031  RH  092%=      5-min Rain = 0
KMC1 161021Z 25001KT M02/M03 A302 RMK A01 T10211031  RH  092%=      5-min Rain = 0
KMC1 161022Z 27001KT M02/M03 A302 RMK A01 T10211031  RH  092%=      5-min Rain = 0
KMC1 161023Z 27001KT M02/M03 A302 RMK A01 T10211032  RH  092%=      5-min Rain = 0
KMC1 161024Z 26001KT M02/M03 A302 RMK A01 T10211032  RH  092%=      5-min Rain = 0
KMC1 161025Z 25001KT M02/M03 A302 RMK A01 T10211032  RH  093%=      5-min Rain = 0
KMC1 161026Z 25001KT M02/M03 A302 RMK A01 T10211032  RH  093%=      5-min Rain = 0
KMC1 161027Z 25001KT M02/M03 A3021 RMK A01 T10211031  RH  093%=      5-min Rain = 0
KMC1 161028Z 25002KT M02/M03 A3021 RMK A01 T10211031  RH  093%=      5-min Rain = 0
KMC1 161029Z 25002KT M02/M03 A3021 RMK A01 T10211031  RH  093%=      5-min Rain = 0
KMC1 161030Z 25002KT M02/M03 A3021 RMK A01 T10211031  RH  093%=      5-min Rain = 0
KMC1 161031Z 25001KT M02/M03 A3021 RMK A01 T10221032  RH  093%=      5-min Rain = 0
KMC1 161032Z 25001KT M02/M03 A3021 RMK A01 T10221032  RH  093%=      5-min Rain = 0
KMC1 161033Z 25002KT M02/M03 A3021 RMK A01 T10231032  RH  093%=      5-min Rain = 0
KMC1 161034Z 25002KT M02/M03 A3021 RMK A01 T10231033  RH  093%=      5-min Rain = 0
KMC1 161035Z 25002KT M02/M03 A3021 RMK A01 T10231033  RH  093%=      5-min Rain = 0
KMC1 161036Z 26002KT M02/M03 A3021 RMK A01 T10231032  RH  094%=      5-min Rain = 0
KMC1 161037Z 26002KT M02/M03 A3021 RMK A01 T10221030  RH  095%=      5-min Rain = 0
KMC1 161038Z 26002KT M02/M03 A3021 RMK A01 T10221029  RH  095%=      5-min Rain = 0
KMC1 161039Z 26002KT M02/M03 A3021 RMK A01 T10221029  RH  094%=      5-min Rain = 0
KMC1 161040Z 25002KT M02/M03 A3021 RMK A01 T10211030  RH  094%=      5-min Rain = 0
KMC1 161041Z 25002KT M02/M03 A3021 RMK A01 T10211030  RH  094%=      5-min Rain = 0
KMC1 161042Z 24002KT M02/M03 A3021 RMK A01 T10211030  RH  094%=      5-min Rain = 0
KMC1 161043Z 24003KT M02/M03 A3021 RMK A01 T10221030  RH  094%=      5-min Rain = 0
KMC1 161044Z 24003KT M02/M03 A3021 RMK A01 T10221030  RH  094%=      5-min Rain = 0
KMC1 161045Z 24003KT M02/M03 A3021 RMK A01 T10221030  RH  094%=      5-min Rain = 0
KMC1 161046Z 23003KT M02/M03 A3021 RMK A01 T10221030  RH  094%=      5-min Rain = 0
KMC1 161047Z 23003KT M02/M03 A3021 RMK A01 T10221030  RH  094%=      5-min Rain = 0
KMC1 161048Z 23003KT M02/M03 A3021 RMK A01 T10221029  RH  095%=      5-min Rain = 0
KMC1 161049Z 23003KT M02/M03 A3021 RMK A01 T10221029  RH  095%=      5-min Rain = 0
KMC1 161050Z 22003KT M02/M03 A3021 RMK A01 T10221029  RH  095%=      5-min Rain = 0
KMC1 161051Z 22003KT M02/M03 A3021 RMK A01 T10211028  RH  095%=      5-min Rain = 0
KMC1 161052Z 21003KT M02/M03 A3021 RMK A01 T10211028  RH  095%=      5-min Rain = 0
KMC1 161053Z 21004KT M02/M03 A3021 RMK A01 T10211027  RH  095%=      5-min Rain = 0
KMC1 161054Z 21004KT M02/M03 A3021 RMK A01 T10201027  RH  095%=      5-min Rain = 0
KMC1 161055Z 21004KT M02/M03 A3021 RMK A01 T10211027  RH  095%=      5-min Rain = 0
KMC1 161056Z 21004KT M02/M03 A3021 RMK A01 T10201027  RH  095%=      5-min Rain = 0
KMC1 161057Z 21004KT M02/M03 A3021 RMK A01 T10211028  RH  095%=      5-min Rain = 0
KMC1 161058Z 21004KT M02/M03 A3021 RMK A01 T10201027  RH  095%=      5-min Rain = 0
KMC1 161059Z 21004KT M02/M03 A3021 RMK A01 T10201027  RH  095%=      5-min Rain = 0
KMC1 161100Z 21004KT M02/M03 A3021 RMK A01 T10201027  RH  095%=      5-min Rain = 0
KMC1 161101Z 21003KT M02/M03 A3021 RMK A01 T10201028  RH  095%=      5-min Rain = 0
KMC1 161102Z 21004KT M02/M03 A3021 RMK A01 T10201028  RH  095%=      5-min Rain = 0
KMC1 161103Z 21004KT M02/M03 A3021 RMK A01 T10201027  RH  095%=      5-min Rain = 0
KMC1 161104Z 21003KT M02/M03 A3021 RMK A01 T10201027  RH  095%=      5-min Rain = 0
KMC1 161105Z 21003KT M02/M03 A3021 RMK A01 T10191027  RH  095%=      5-min Rain = 0
KMC1 161106Z 20003KT M02/M03 A3021 RMK A01 T10201027  RH  094%=      5-min Rain = 0
KMC1 161107Z 20003KT M02/M03 A3021 RMK A01 T10191027  RH  095%=      5-min Rain = 0
KMC1 161108Z 19003KT M02/M03 A3021 RMK A01 T10191027  RH  095%=      5-min Rain = 0
KMC1 161109Z 19003KT M02/M03 A3021 RMK A01 T10201027  RH  095%=      5-min Rain = 0
KMC1 161110Z 19003KT M02/M03 A3021 RMK A01 T10191027  RH  095%=      5-min Rain = 0
KMC1 161111Z 19003KT M02/M03 A3021 RMK A01 T10201027  RH  095%=      5-min Rain = 0
KMC1 161112Z 19003KT M02/M03 A3021 RMK A01 T10191027  RH  095%=      5-min Rain = 0
KMC1 161113Z 20003KT M02/M03 A3021 RMK A01 T10191026  RH  095%=      5-min Rain = 0
KMC1 161114Z 20002KT M02/M03 A3021 RMK A01 T10191026  RH  095%=      5-min Rain = 0
KMC1 161115Z 20002KT M02/M03 A3021 RMK A01 T10191026  RH  095%=      5-min Rain = 0
KMC1 161116Z 20002KT M02/M03 A3021 RMK A01 T10191026  RH  095%=      5-min Rain = 0
KMC1 161117Z 20002KT M02/M03 A3021 RMK A01 T10191026  RH  095%=      5-min Rain = 0
KMC1 161118Z 20002KT M02/M03 A3021 RMK A01 T10191026  RH  095%=      5-min Rain = 0
KMC1 161119Z 20002KT M02/M03 A3021 RMK A01 T10191025  RH  095%=      5-min Rain = 0
KMC1 161120Z 20003KT M02/M03 A3021 RMK A01 T10191026  RH  095%=      5-min Rain = 0
KMC1 161121Z 20003KT M02/M03 A3021 RMK A01 T10201027  RH  095%=      5-min Rain = 0
KMC1 161122Z 20003KT M02/M03 A3021 RMK A01 T10211028  RH  095%=      5-min Rain = 0
KMC1 161123Z 20003KT M02/M03 A3021 RMK A01 T10211028  RH  095%=      5-min Rain = 0
KMC1 161124Z 20003KT M02/M03 A3021 RMK A01 T10211029  RH  095%=      5-min Rain = 0
KMC1 161125Z 20003KT M02/M03 A3021 RMK A01 T10221029  RH  095%=      5-min Rain = 0
KMC1 161126Z 20003KT M02/M03 A3021 RMK A01 T10221029  RH  095%=      5-min Rain = 0
KMC1 161127Z 20003KT M02/M03 A3021 RMK A01 T10221029  RH  095%=      5-min Rain = 0
KMC1 161128Z 21003KT M02/M03 A3021 RMK A01 T10221028  RH  095%=      5-min Rain = 0
KMC1 161129Z 21002KT M02/M03 A3021 RMK A01 T10211027  RH  096%=      5-min Rain = 0
KMC1 161130Z 22002KT M02/M03 A3021 RMK A01 T10201026  RH  096%=      5-min Rain = 0
KMC1 161131Z 23002KT M02/M03 A3021 RMK A01 T10211027  RH  096%=      5-min Rain = 0
KMC1 161132Z 24002KT M02/M03 A3021 RMK A01 T10211028  RH  095%=      5-min Rain = 0
KMC1 161133Z 25002KT M02/M03 A3021 RMK A01 T10211029  RH  095%=      5-min Rain = 0
KMC1 161134Z 25002KT M02/M03 A3021 RMK A01 T10221030  RH  094%=      5-min Rain = 0
KMC1 161135Z 26002KT M02/M03 A3021 RMK A01 T10221030  RH  094%=      5-min Rain = 0
KMC1 161136Z 26002KT M02/M03 A3021 RMK A01 T10221031  RH  094%=      5-min Rain = 0
KMC1 161137Z 27002KT M02/M03 A3021 RMK A01 T10231032  RH  094%=      5-min Rain = 0
KMC1 161138Z 27002KT M02/M03 A3021 RMK A01 T10231032  RH  093%=      5-min Rain = 0
KMC1 161139Z 27002KT M02/M03 A3021 RMK A01 T10231033  RH  093%=      5-min Rain = 0
KMC1 161140Z 28002KT M02/M03 A3021 RMK A01 T10231033  RH  093%=      5-min Rain = 0
KMC1 161141Z 26001KT M02/M03 A3021 RMK A01 T10231033  RH  093%=      5-min Rain = 0
KMC1 161142Z 28001KT M02/M03 A3021 RMK A01 T10231033  RH  093%=      5-min Rain = 0
KMC1 161143Z 28001KT M02/M03 A3021 RMK A01 T10241033  RH  093%=      5-min Rain = 0
KMC1 161144Z 28001KT M02/M03 A3021 RMK A01 T10241034  RH  093%=      5-min Rain = 0
KMC1 161145Z 28001KT M02/M03 A3021 RMK A01 T10241034  RH  093%=      5-min Rain = 0
KMC1 161146Z 29001KT M02/M03 A3021 RMK A01 T10241034  RH  093%=      5-min Rain = 0
KMC1 161147Z 31001KT M03/M03 A3021 RMK A01 T10251034  RH  093%=      5-min Rain = 0
KMC1 161148Z 31001KT M03/M04 A3021 RMK A01 T10251035  RH  093%=      5-min Rain = 0
KMC1 161149Z 32001KT M03/M03 A3021 RMK A01 T10251034  RH  093%=      5-min Rain = 0
KMC1 161150Z 34001KT M03/M03 A3021 RMK A01 T10251034  RH  094%=      5-min Rain = 0
KMC1 161151Z 34001KT M03/M03 A3021 RMK A01 T10251034  RH  094%=      5-min Rain = 0
KMC1 161152Z 35001KT M02/M03 A3021 RMK A01 T10241032  RH  094%=      5-min Rain = 0
KMC1 161153Z 35001KT M03/M03 A3021 RMK A01 T10251032  RH  094%=      5-min Rain = 0
KMC1 161154Z 35001KT M03/M03 A3021 RMK A01 T10251032  RH  095%=      5-min Rain = 0
KMC1 161155Z 34001KT M03/M03 A3021 RMK A01 T10251032  RH  095%=      5-min Rain = 0
KMC1 161156Z 33001KT M03/M03 A3021 RMK A01 T10251032  RH  095%=      5-min Rain = 0
KMC1 161157Z 33001KT M02/M03 A3021 RMK A01 T10241032  RH  095%=      5-min Rain = 0
KMC1 161158Z 33001KT M02/M03 A3021 RMK A01 T10241032  RH  095%=      5-min Rain = 0
KMC1 161159Z 32001KT M03/M03 A3021 RMK A01 T10251032  RH  095%=      5-min Rain = 0
KMC1 161200Z 30001KT M03/M03 A3021 RMK A01 T10251032  RH  095%=      5-min Rain = 0
KMC1 161201Z 28001KT M03/M03 A3022 RMK A01 T10251031  RH  095%=      5-min Rain = 0
KMC1 161202Z 28001KT M02/M03 A3022 RMK A01 T10241029  RH  096%=      5-min Rain = 0
KMC1 161203Z 30001KT M02/M03 A3022 RMK A01 T10231029  RH  096%=      5-min Rain = 0
KMC1 161204Z 30001KT M02/M03 A3022 RMK A01 T10231030  RH  096%=      5-min Rain = 0
KMC1 161205Z 32001KT M02/M03 A3022 RMK A01 T10241031  RH  095%=      5-min Rain = 0
KMC1 161206Z 32001KT M02/M03 A3022 RMK A01 T10241031  RH  095%=      5-min Rain = 0
KMC1 161207Z 32001KT M02/M03 A3022 RMK A01 T10241030  RH  095%=      5-min Rain = 0
KMC1 161208Z 32001KT M02/M03 A3022 RMK A01 T10241031  RH  095%=      5-min Rain = 0
KMC1 161209Z 32001KT M03/M03 A3022 RMK A01 T10251032  RH  095%=      5-min Rain = 0
KMC1 161210Z 32000KT M03/M03 A3022 RMK A01 T10251032  RH  095%=      5-min Rain = 0
KMC1 161211Z 30001KT M03/M03 A3022 RMK A01 T10251032  RH  095%=      5-min Rain = 0
KMC1 161212Z 29000KT M03/M03 A3022 RMK A01 T10251032  RH  095%=      5-min Rain = 0
KMC1 161213Z 29000KT M03/M03 A3022 RMK A01 T10251032  RH  095%=      5-min Rain = 0
KMC1 161214Z 30000KT M03/M03 A3022 RMK A01 T10251031  RH  096%=      5-min Rain = 0
KMC1 161215Z 00000KT M03/M03 A3022 RMK A01 T10251031  RH  096%=      5-min Rain = 0
KMC1 161216Z 30000KT M03/M03 A3022 RMK A01 T10251031  RH  096%=      5-min Rain = 0
KMC1 161217Z 30000KT M03/M03 A3022 RMK A01 T10261031  RH  096%=      5-min Rain = 0
KMC1 161218Z 30000KT M03/M03 A3022 RMK A01 T10251031  RH  096%=      5-min Rain = 0
KMC1 161219Z 30000KT M03/M03 A3022 RMK A01 T10251030  RH  096%=      5-min Rain = 0
KMC1 161220Z 00000KT M03/M03 A3022 RMK A01 T10251030  RH  096%=      5-min Rain = 0
KMC1 161221Z 00000KT M02/M03 A3022 RMK A01 T10241029  RH  096%=      5-min Rain = 0
KMC1 161222Z 00000KT M02/M03 A3022 RMK A01 T10231028  RH  096%=      5-min Rain = 0
KMC1 161223Z 00000KT M02/M03 A3022 RMK A01 T10231028  RH  097%=      5-min Rain = 0
KMC1 161224Z 00000KT M02/M03 A3022 RMK A01 T10221026  RH  097%=      5-min Rain = 0
KMC1 161225Z 00000KT M02/M03 A3022 RMK A01 T10201025  RH  097%=      5-min Rain = 0
KMC1 161226Z 00000KT M02/M03 A3022 RMK A01 T10211025  RH  097%=      5-min Rain = 0
KMC1 161227Z 00000KT M02/M03 A3022 RMK A01 T10201025  RH  097%=      5-min Rain = 0
KMC1 161228Z 00000KT M02/M02 A3022 RMK A01 T10191023  RH  097%=      5-min Rain = 0
KMC1 161229Z 00000KT M02/M02 A3022 RMK A01 T10191024  RH  097%=      5-min Rain = 0
KMC1 161230Z 00000KT M02/M02 A3022 RMK A01 T10191024  RH  096%=      5-min Rain = 0
KMC1 161231Z 00000KT M02/M02 A3022 RMK A01 T10181023  RH  097%=      5-min Rain = 0
KMC1 161232Z 00000KT M02/M02 A3022 RMK A01 T10171022  RH  097%=      5-min Rain = 0
KMC1 161233Z 00000KT M02/M02 A3022 RMK A01 T10161021  RH  097%=      5-min Rain = 0
KMC1 161234Z 00000KT M02/M02 A3022 RMK A01 T10151019  RH  097%=      5-min Rain = 0
KMC1 161235Z 00000KT M01/M02 A3022 RMK A01 T10141019  RH  097%=      5-min Rain = 0
KMC1 161236Z 00000KT M01/M02 A3022 RMK A01 T10141019  RH  096%=      5-min Rain = 0
KMC1 161237Z 20000KT M01/M02 A3022 RMK A01 T10141020  RH  096%=      5-min Rain = 0
KMC1 161238Z 00000KT M01/M02 A3022 RMK A01 T10141019  RH  096%=      5-min Rain = 0
KMC1 161239Z 00000KT M01/M02 A3022 RMK A01 T10131018  RH  097%=      5-min Rain = 0
KMC1 161240Z 00000KT M01/M02 A3022 RMK A01 T10121016  RH  097%=      5-min Rain = 0
KMC1 161241Z 00000KT M01/M02 A3022 RMK A01 T10111016  RH  097%=      5-min Rain = 0
KMC1 161242Z 00000KT M01/M01 A3022 RMK A01 T10101014  RH  097%=      5-min Rain = 0
KMC1 161243Z 00000KT M01/M01 A3022 RMK A01 T10091013  RH  097%=      5-min Rain = 0
KMC1 161244Z 20000KT M01/M01 A3023 RMK A01 T10081012  RH  097%=      5-min Rain = 0
KMC1 161245Z 00000KT M01/M01 A3022 RMK A01 T10061011  RH  097%=      5-min Rain = 0
KMC1 161246Z 00000KT M01/M01 A3022 RMK A01 T10061011  RH  096%=      5-min Rain = 0
KMC1 161247Z 00000KT M01/M01 A3022 RMK A01 T10061012  RH  096%=      5-min Rain = 0
KMC1 161248Z 00000KT M01/M01 A3022 RMK A01 T10061012  RH  095%=      5-min Rain = 0
KMC1 161249Z 00000KT M01/M01 A3022 RMK A01 T10071014  RH  095%=      5-min Rain = 0
KMC1 161250Z 00000KT M01/M02 A3022 RMK A01 T10071015  RH  095%=      5-min Rain = 0
KMC1 161251Z 00000KT M01/M02 A3022 RMK A01 T10071015  RH  094%=      5-min Rain = 0
KMC1 161252Z 20000KT M01/M02 A3022 RMK A01 T10081018  RH  093%=      5-min Rain = 0
KMC1 161253Z 33000KT M01/M02 A3023 RMK A01 T10101021  RH  092%=      5-min Rain = 0
KMC1 161254Z 36000KT M01/M02 A3023 RMK A01 T10111023  RH  092%=      5-min Rain = 0
KMC1 161255Z 00000KT M01/M03 A3023 RMK A01 T10131025  RH  092%=      5-min Rain = 0
KMC1 161256Z 00000KT M02/M03 A3023 RMK A01 T10151028  RH  091%=      5-min Rain = 0
KMC1 161257Z 35000KT M02/M03 A3023 RMK A01 T10161030  RH  091%=      5-min Rain = 0
KMC1 161258Z 00000KT M02/M03 A3023 RMK A01 T10181031  RH  091%=      5-min Rain = 0
KMC1 161259Z 00000KT M02/M03 A3023 RMK A01 T10181030  RH  091%=      5-min Rain = 0
KMC1 161300Z 00000KT M02/M03 A3023 RMK A01 T10191030  RH  092%=      5-min Rain = 0
KMC1 161301Z 00000KT M02/M03 A3023 RMK A01 T10191030  RH  092%=      5-min Rain = 0
KMC1 161302Z 00000KT M02/M03 A3023 RMK A01 T10191030  RH  092%=      5-min Rain = 0
KMC1 161303Z 00000KT M02/M03 A3022 RMK A01 T10191030  RH  093%=      5-min Rain = 0
KMC1 161304Z 00000KT M02/M03 A3022 RMK A01 T10201030  RH  093%=      5-min Rain = 0
KMC1 161305Z 00000KT M02/M03 A3022 RMK A01 T10201030  RH  093%=      5-min Rain = 0
KMC1 161306Z 00000KT M02/M03 A3022 RMK A01 T10201029  RH  093%=      5-min Rain = 0
KMC1 161307Z 00000KT M02/M03 A3022 RMK A01 T10191027  RH  094%=      5-min Rain = 0
KMC1 161308Z 19000KT M02/M03 A3022 RMK A01 T10181026  RH  094%=      5-min Rain = 0
KMC1 161309Z 17001KT M02/M03 A3022 RMK A01 T10181025  RH  095%=      5-min Rain = 0
KMC1 161310Z 17000KT M02/M03 A3022 RMK A01 T10171025  RH  095%=      5-min Rain = 0
KMC1 161311Z 14000KT M02/M02 A3022 RMK A01 T10171024  RH  095%=      5-min Rain = 0
KMC1 161312Z 14001KT M02/M02 A3022 RMK A01 T10161023  RH  095%=      5-min Rain = 0
KMC1 161313Z 14001KT M02/M02 A3022 RMK A01 T10161023  RH  095%=      5-min Rain = 0
KMC1 161314Z 15000KT M02/M02 A3022 RMK A01 T10161023  RH  095%=      5-min Rain = 0
KMC1 161315Z 15001KT M02/M02 A3023 RMK A01 T10151022  RH  095%=      5-min Rain = 0
KMC1 161316Z 16001KT M02/M02 A3023 RMK A01 T10151022  RH  095%=      5-min Rain = 0
KMC1 161317Z 16001KT M02/M02 A3023 RMK A01 T10151022  RH  095%=      5-min Rain = 0
KMC1 161318Z 16001KT M02/M02 A3023 RMK A01 T10151022  RH  095%=      5-min Rain = 0
KMC1 161319Z 17001KT M01/M02 A3023 RMK A01 T10131019  RH  096%=      5-min Rain = 0
KMC1 161320Z 16000KT M01/M02 A3023 RMK A01 T10111017  RH  096%=      5-min Rain = 0
KMC1 161321Z 16000KT M01/M02 A3023 RMK A01 T10111017  RH  096%=      5-min Rain = 0
KMC1 161322Z 20000KT M01/M01 A3023 RMK A01 T10091014  RH  096%=      5-min Rain = 0
KMC1 161323Z 00000KT M01/M01 A3023 RMK A01 T10071012  RH  097%=      5-min Rain = 0
KMC1 161324Z 23000KT M01/M01 A3023 RMK A01 T10061011  RH  096%=      5-min Rain = 0
KMC1 161325Z 14000KT M01/M01 A3023 RMK A01 T10061012  RH  096%=      5-min Rain = 0
KMC1 161326Z 00000KT M01/M01 A3023 RMK A01 T10071014  RH  095%=      5-min Rain = 0
KMC1 161327Z 00000KT M01/M02 A3023 RMK A01 T10081017  RH  094%=      5-min Rain = 0
KMC1 161328Z 00000KT M01/M02 A3023 RMK A01 T10091019  RH  093%=      5-min Rain = 0
KMC1 161329Z 00000KT M01/M02 A3023 RMK A01 T10101021  RH  093%=      5-min Rain = 0
KMC1 161330Z 00000KT M01/M02 A3023 RMK A01 T10101021  RH  092%=      5-min Rain = 0
KMC1 161331Z 00000KT M01/M02 A3023 RMK A01 T10111023  RH  092%=      5-min Rain = 0
KMC1 161332Z 00000KT M01/M02 A3023 RMK A01 T10111023  RH  092%=      5-min Rain = 0
KMC1 161333Z 00000KT M01/M02 A3023 RMK A01 T10121024  RH  091%=      5-min Rain = 0
KMC1 161334Z 00000KT M01/M02 A3023 RMK A01 T10121024  RH  092%=      5-min Rain = 0
KMC1 161335Z 00000KT M01/M02 A3023 RMK A01 T10111023  RH  092%=      5-min Rain = 0
KMC1 161336Z 00000KT M01/M02 A3023 RMK A01 T10111022  RH  092%=      5-min Rain = 0
KMC1 161337Z 00000KT M01/M02 A3023 RMK A01 T10091020  RH  092%=      5-min Rain = 0
KMC1 161338Z 00000KT M01/M02 A3023 RMK A01 T10081018  RH  093%=      5-min Rain = 0
KMC1 161339Z 00000KT M01/M02 A3023 RMK A01 T10071017  RH  093%=      5-min Rain = 0
KMC1 161340Z 00000KT M01/M02 A3023 RMK A01 T10061016  RH  093%=      5-min Rain = 0
KMC1 161341Z 17000KT M01/M02 A3023 RMK A01 T10061016  RH  093%=      5-min Rain = 0
KMC1 161342Z 00000KT M01/M02 A3023 RMK A01 T10051016  RH  093%=      5-min Rain = 0
KMC1 161343Z 15000KT M00/M01 A3023 RMK A01 T10041014  RH  093%=      5-min Rain = 0
KMC1 161344Z 15001KT M00/M01 A3023 RMK A01 T10011011  RH  093%=      5-min Rain = 0
KMC1 161345Z 15001KT 00/M01 A3023 RMK A01 T00021007  RH  093%=      5-min Rain = 0
KMC1 161346Z 15000KT 01/M01 A3023 RMK A01 T00051005  RH  093%=      5-min Rain = 0
KMC1 161347Z 15001KT 01/M00 A3023 RMK A01 T00081003  RH  092%=      5-min Rain = 0
KMC1 161348Z 16001KT 01/M00 A3023 RMK A01 T00111001  RH  091%=      5-min Rain = 0
KMC1 161349Z 15001KT 01/M00 A3023 RMK A01 T00141001  RH  090%=      5-min Rain = 0
KMC1 161350Z 17001KT 02/M00 A3023 RMK A01 T00161002  RH  088%=      5-min Rain = 0
KMC1 161351Z 16000KT 02/M00 A3023 RMK A01 T00171003  RH  087%=      5-min Rain = 0
KMC1 161352Z 17001KT 02/M00 A3023 RMK A01 T00181003  RH  086%=      5-min Rain = 0
KMC1 161353Z 18000KT 02/M00 A3023 RMK A01 T00191002  RH  086%=      5-min Rain = 0
KMC1 161354Z 19000KT 02/M00 A3023 RMK A01 T00201001  RH  086%=      5-min Rain = 0
KMC1 161355Z 20000KT 02/M00 A3023 RMK A01 T00211001  RH  086%=      5-min Rain = 0
KMC1 161356Z 00000KT 02/M00 A3023 RMK A01 T00221001  RH  085%=      5-min Rain = 0
KMC1 161357Z 00000KT 02/M00 A3023 RMK A01 T00231001  RH  084%=      5-min Rain = 0
KMC1 161358Z 26000KT 02/M00 A3023 RMK A01 T00241001  RH  084%=      5-min Rain = 0
KMC1 161359Z 24001KT 03/00 A3023 RMK A01 T002500-0  RH  083%=      5-min Rain = 0
KMC1 161400Z 24000KT 03/00 A3023 RMK A01 T00260001  RH  083%=      5-min Rain = 0
KMC1 161401Z 29000KT 03/00 A3023 RMK A01 T00280001  RH  083%=      5-min Rain = 0
KMC1 161402Z 27000KT 03/00 A3023 RMK A01 T00280001  RH  082%=      5-min Rain = 0
KMC1 161403Z 26000KT 03/00 A3023 RMK A01 T00290002  RH  082%=      5-min Rain = 0
KMC1 161404Z 26000KT 03/00 A3023 RMK A01 T00290002  RH  082%=      5-min Rain = 0
KMC1 161405Z 26000KT 03/00 A3023 RMK A01 T00290002  RH  082%=      5-min Rain = 0
KMC1 161406Z 26000KT 03/00 A3023 RMK A01 T00300002  RH  082%=      5-min Rain = 0
KMC1 161407Z 26000KT 03/00 A3023 RMK A01 T00300003  RH  082%=      5-min Rain = 0
KMC1 161408Z 29000KT 03/00 A3023 RMK A01 T00300003  RH  083%=      5-min Rain = 0
KMC1 161409Z 29000KT 03/00 A3023 RMK A01 T00300003  RH  083%=      5-min Rain = 0
KMC1 161410Z 28000KT 03/00 A3023 RMK A01 T00300002  RH  082%=      5-min Rain = 0
KMC1 161411Z 28001KT 03/00 A3023 RMK A01 T00290001  RH  082%=      5-min Rain = 0
KMC1 161412Z 28001KT 03/00 A3023 RMK A01 T002800-0  RH  081%=      5-min Rain = 0
KMC1 161413Z 29001KT 03/00 A3023 RMK A01 T002800-0  RH  082%=      5-min Rain = 0
KMC1 161414Z 29001KT 03/00 A3023 RMK A01 T00280002  RH  083%=      5-min Rain = 0
KMC1 161415Z 27001KT 03/00 A3023 RMK A01 T00280001  RH  083%=      5-min Rain = 0
KMC1 161416Z 27001KT 03/M00 A3023 RMK A01 T00271001  RH  082%=      5-min Rain = 0
KMC1 161417Z 28001KT 03/M00 A3023 RMK A01 T00271001  RH  082%=      5-min Rain = 0
KMC1 161418Z 27001KT 03/M00 A3023 RMK A01 T00261001  RH  083%=      5-min Rain = 0
KMC1 161419Z 27001KT 03/00 A3023 RMK A01 T002600-0  RH  083%=      5-min Rain = 0
KMC1 161420Z 26001KT 03/00 A3023 RMK A01 T002600-0  RH  083%=      5-min Rain = 0
KMC1 161421Z 26001KT 03/00 A3023 RMK A01 T002600-0  RH  083%=      5-min Rain = 0
KMC1 161422Z 25001KT 03/00 A3023 RMK A01 T002700-0  RH  082%=      5-min Rain = 0
KMC1 161423Z 26001KT 03/00 A3023 RMK A01 T002700-0  RH  082%=      5-min Rain = 0
KMC1 161424Z 25001KT 03/00 A3023 RMK A01 T00280001  RH  082%=      5-min Rain = 0
KMC1 161425Z 25001KT 03/00 A3023 RMK A01 T00280000  RH  082%=      5-min Rain = 0
KMC1 161426Z 26001KT 03/00 A3023 RMK A01 T00280001  RH  082%=      5-min Rain = 0
KMC1 161427Z 26001KT 03/00 A3023 RMK A01 T00290001  RH  082%=      5-min Rain = 0
KMC1 161428Z 25001KT 03/00 A3023 RMK A01 T00290000  RH  082%=      5-min Rain = 0
KMC1 161429Z 25000KT 03/00 A3023 RMK A01 T00290001  RH  082%=      5-min Rain = 0
KMC1 161430Z 24000KT 03/00 A3023 RMK A01 T00300001  RH  082%=      5-min Rain = 0
KMC1 161431Z 23001KT 03/00 A3023 RMK A01 T00300001  RH  081%=      5-min Rain = 0
KMC1 161432Z 24001KT 03/00 A3023 RMK A01 T00320003  RH  082%=      5-min Rain = 0
KMC1 161433Z 23001KT 03/01 A3023 RMK A01 T00330006  RH  082%=      5-min Rain = 0
KMC1 161434Z 22001KT 04/01 A3023 RMK A01 T00350005  RH  081%=      5-min Rain = 0
KMC1 161435Z 23001KT 04/01 A3023 RMK A01 T00360006  RH  081%=      5-min Rain = 0
KMC1 161436Z 23001KT 04/01 A3023 RMK A01 T00380007  RH  081%=      5-min Rain = 0
KMC1 161437Z 23001KT 04/01 A3023 RMK A01 T00400008  RH  080%=      5-min Rain = 0
KMC1 161438Z 24001KT 04/01 A3023 RMK A01 T00410011  RH  081%=      5-min Rain = 0
KMC1 161439Z 25001KT 04/01 A3023 RMK A01 T00430011  RH  080%=      5-min Rain = 0
KMC1 161440Z 26001KT 04/01 A3023 RMK A01 T00440011  RH  079%=      5-min Rain = 0
KMC1 161441Z 25001KT 05/01 A3023 RMK A01 T00450009  RH  078%=      5-min Rain = 0
KMC1 161442Z 25001KT 05/01 A3023 RMK A01 T00460010  RH  077%=      5-min Rain = 0
KMC1 161443Z 25001KT 05/01 A3023 RMK A01 T00470010  RH  077%=      5-min Rain = 0
KMC1 161444Z 24001KT 05/02 A3023 RMK A01 T00490015  RH  078%=      5-min Rain = 0
KMC1 161445Z 25000KT 05/01 A3023 RMK A01 T00510014  RH  077%=      5-min Rain = 0
KMC1 161446Z 27001KT 05/01 A3023 RMK A01 T00520012  RH  075%=      5-min Rain = 0
KMC1 161447Z 23001KT 05/01 A3023 RMK A01 T00530014  RH  076%=      5-min Rain = 0
KMC1 161448Z 21000KT 06/02 A3023 RMK A01 T00550016  RH  076%=      5-min Rain = 0
KMC1 161449Z 19000KT 06/01 A3023 RMK A01 T00560014  RH  075%=      5-min Rain = 0
KMC1 161450Z 20001KT 06/02 A3023 RMK A01 T00570015  RH  075%=      5-min Rain = 0
KMC1 161451Z 19001KT 06/02 A3023 RMK A01 T00580016  RH  074%=      5-min Rain = 0
KMC1 161452Z 00000KT 06/02 A3023 RMK A01 T00600018  RH  074%=      5-min Rain = 0
KMC1 161453Z 21000KT 06/02 A3023 RMK A01 T00620017  RH  073%=      5-min Rain = 0
KMC1 161454Z 17000KT 06/02 A3023 RMK A01 T00640019  RH  073%=      5-min Rain = 0
KMC1 161455Z 17001KT 07/02 A3023 RMK A01 T00650018  RH  072%=      5-min Rain = 0
KMC1 161456Z 17002KT 07/02 A3023 RMK A01 T00680019  RH  071%=      5-min Rain = 0
KMC1 161457Z 18001KT 07/02 A3023 RMK A01 T00700022  RH  071%=      5-min Rain = 0
KMC1 161458Z 17000KT 07/02 A3023 RMK A01 T00730022  RH  070%=      5-min Rain = 0
KMC1 161459Z 17002KT 08/02 A3023 RMK A01 T00750022  RH  069%=      5-min Rain = 0
KMC1 161500Z 18001KT 08/03 A3023 RMK A01 T00780025  RH  069%=      5-min Rain = 0
KMC1 161501Z 16002KT 08/02 A3023 RMK A01 T00790022  RH  067%=      5-min Rain = 0
KMC1 161502Z 17001KT 08/03 A3023 RMK A01 T00810026  RH  068%=      5-min Rain = 0
KMC1 161503Z 16002KT 08/02 A3023 RMK A01 T00830023  RH  066%=      5-min Rain = 0
KMC1 161504Z 19001KT 08/03 A3023 RMK A01 T00840025  RH  066%=      5-min Rain = 0
KMC1 161505Z 17002KT 09/03 A3023 RMK A01 T00860025  RH  065%=      5-min Rain = 0
KMC1 161506Z 16001KT 09/02 A3023 RMK A01 T00870021  RH  063%=      5-min Rain = 0
KMC1 161507Z 15000KT 09/02 A3022 RMK A01 T00880022  RH  064%=      5-min Rain = 0
KMC1 161508Z 19001KT 09/02 A3023 RMK A01 T00890024  RH  064%=      5-min Rain = 0
KMC1 161509Z 17001KT 09/03 A3022 RMK A01 T00890026  RH  065%=      5-min Rain = 0
KMC1 161510Z 17001KT 09/03 A3022 RMK A01 T00900025  RH  064%=      5-min Rain = 0
KMC1 161511Z 15002KT 09/03 A3022 RMK A01 T00910026  RH  064%=      5-min Rain = 0
KMC1 161512Z 20002KT 09/03 A3022 RMK A01 T00930027  RH  064%=      5-min Rain = 0
KMC1 161513Z 17001KT 09/03 A3022 RMK A01 T00940026  RH  063%=      5-min Rain = 0
KMC1 161514Z 19003KT 09/03 A3022 RMK A01 T00940025  RH  062%=      5-min Rain = 0
KMC1 161515Z 18004KT 10/02 A3022 RMK A01 T00950022  RH  060%=      5-min Rain = 0
KMC1 161516Z 18003KT 10/02 A3022 RMK A01 T00950022  RH  060%=      5-min Rain = 0
KMC1 161517Z 19003KT 10/02 A3022 RMK A01 T00960023  RH  061%=      5-min Rain = 0
KMC1 161518Z 18003KT 10/02 A3022 RMK A01 T00970023  RH  060%=      5-min Rain = 0
KMC1 161519Z 17001KT 10/03 A3022 RMK A01 T00990026  RH  060%=      5-min Rain = 0
KMC1 161520Z 18002KT 10/03 A3022 RMK A01 T01010027  RH  060%=      5-min Rain = 0
KMC1 161521Z 18002KT 10/03 A3022 RMK A01 T01020026  RH  060%=      5-min Rain = 0
KMC1 161522Z 18002KT 10/03 A3022 RMK A01 T01020026  RH  059%=      5-min Rain = 0
KMC1 161523Z 19002KT 10/03 A3022 RMK A01 T01030029  RH  060%=      5-min Rain = 0
KMC1 161524Z 18003KT 11/03 A3022 RMK A01 T01050028  RH  059%=      5-min Rain = 0
KMC1 161525Z 18003KT 11/03 A3022 RMK A01 T01050025  RH  057%=      5-min Rain = 0
KMC1 161526Z 19003KT 11/03 A3022 RMK A01 T01060026  RH  058%=      5-min Rain = 0
KMC1 161527Z 20005KT 11/02 A3022 RMK A01 T01060023  RH  056%=      5-min Rain = 0
KMC1 161528Z 18005KT 11/02 A3022 RMK A01 T01060023  RH  056%=      5-min Rain = 0
KMC1 161529Z 19005KT 11/02 A3022 RMK A01 T01060022  RH  056%=      5-min Rain = 0
KMC1 161530Z 18004KT 11/02 A3022 RMK A01 T01050023  RH  057%=      5-min Rain = 0
KMC1 161531Z 18004KT 11/02 A3022 RMK A01 T01060024  RH  057%=      5-min Rain = 0
KMC1 161532Z 20001KT 11/03 A3022 RMK A01 T01070025  RH  057%=      5-min Rain = 0
KMC1 161533Z 20003KT 11/02 A3022 RMK A01 T01070024  RH  056%=      5-min Rain = 0
KMC1 161534Z 20003KT 11/02 A3022 RMK A01 T01080023  RH  056%=      5-min Rain = 0
KMC1 161535Z 19005KT 11/02 A3022 RMK A01 T01090024  RH  056%=      5-min Rain = 0
KMC1 161536Z 17004KT 11/02 A3022 RMK A01 T01090022  RH  055%=      5-min Rain = 0
KMC1 161537Z 20003KT 11/02 A3022 RMK A01 T01090022  RH  055%=      5-min Rain = 0
KMC1 161538Z 17003KT 11/03 A3022 RMK A01 T01100027  RH  056%=      5-min Rain = 0
KMC1 161539Z 17004KT 11/03 A3022 RMK A01 T01130026  RH  055%=      5-min Rain = 0
KMC1 161540Z 18004KT 11/02 A3022 RMK A01 T01140024  RH  054%=      5-min Rain = 0
KMC1 161541Z 17005KT 12/03 A3022 RMK A01 T01150025  RH  054%=      5-min Rain = 0
KMC1 161542Z 18004KT 12/02 A3022 RMK A01 T01160024  RH  053%=      5-min Rain = 0
KMC1 161543Z 19004KT 12/03 A3022 RMK A01 T01170025  RH  053%=      5-min Rain = 0
KMC1 161544Z 18005KT 12/03 A3022 RMK A01 T01170026  RH  054%=      5-min Rain = 0
KMC1 161545Z 19004KT 12/02 A3022 RMK A01 T01180024  RH  052%=      5-min Rain = 0
KMC1 161546Z 19003KT 12/02 A3022 RMK A01 T01190023  RH  052%=      5-min Rain = 0
KMC1 161547Z 17004KT 12/02 A3022 RMK A01 T01190024  RH  052%=      5-min Rain = 0
KMC1 161548Z 19005KT 12/03 A3022 RMK A01 T01200025  RH  052%=      5-min Rain = 0
KMC1 161549Z 19004KT 12/02 A3022 RMK A01 T01210024  RH  052%=      5-min Rain = 0
KMC1 161550Z 20004KT 12/03 A3022 RMK A01 T01220025  RH  052%=      5-min Rain = 0
KMC1 161551Z 20009KT 12/02 A3022 RMK A01 T01230024  RH  051%=      5-min Rain = 0
KMC1 161552Z 20008KT 12/02 A3022 RMK A01 T01230021  RH  050%=      5-min Rain = 0
KMC1 161553Z 20009KT 12/02 A3022 RMK A01 T01220021  RH  050%=      5-min Rain = 0
KMC1 161554Z 19009KT 12/02 A3022 RMK A01 T01220020  RH  049%=      5-min Rain = 0
KMC1 161555Z 19006KT 12/02 A3022 RMK A01 T01220020  RH  050%=      5-min Rain = 0
KMC1 161556Z 19005KT 12/02 A3022 RMK A01 T01230024  RH  051%=      5-min Rain = 0
KMC1 161557Z 20006KT 13/03 A3022 RMK A01 T01260025  RH  050%=      5-min Rain = 0
KMC1 161558Z 20007KT 13/02 A3022 RMK A01 T01270023  RH  049%=      5-min Rain = 0
KMC1 161559Z 20007KT 13/02 A3021 RMK A01 T01280021  RH  048%=      5-min Rain = 0
KMC1 161600Z 20006KT 13/02 A3021 RMK A01 T01280022  RH  048%=      5-min Rain = 0
KMC1 161601Z 20009KT 13/02 A3021 RMK A01 T01270021  RH  048%=      5-min Rain = 0
KMC1 161602Z 20009KT 13/02 A3021 RMK A01 T01270021  RH  049%=      5-min Rain = 0
KMC1 161603Z 18009KT 13/02 A3021 RMK A01 T01270021  RH  048%=      5-min Rain = 0
KMC1 161604Z 18010KT 13/02 A3021 RMK A01 T01270018  RH  048%=      5-min Rain = 0
KMC1 161605Z 18012KT 13/02 A3021 RMK A01 T01260018  RH  048%=      5-min Rain = 0
KMC1 161606Z 18012KT 13/02 A3021 RMK A01 T01260018  RH  048%=      5-min Rain = 0
KMC1 161607Z 18008G13KT 13/02 A3021 RMK A01 T01270018  RH  047%=      5-min Rain = 0
KMC1 161608Z 20009G14KT 13/02 A3021 RMK A01 T01290021  RH  048%=      5-min Rain = 0
KMC1 161609Z 18010KT 13/02 A3021 RMK A01 T01300019  RH  047%=      5-min Rain = 0
KMC1 161610Z 19009KT 13/02 A3021 RMK A01 T01300018  RH  047%=      5-min Rain = 0
KMC1 161611Z 19008KT 13/02 A3021 RMK A01 T01300019  RH  047%=      5-min Rain = 0
KMC1 161612Z 19007KT 13/02 A3021 RMK A01 T01300019  RH  047%=      5-min Rain = 0
KMC1 161613Z 19008KT 13/02 A3021 RMK A01 T01300019  RH  047%=      5-min Rain = 0
KMC1 161614Z 20007KT 13/02 A3021 RMK A01 T01310020  RH  047%=      5-min Rain = 0
KMC1 161615Z 20008KT 13/02 A3021 RMK A01 T01320021  RH  047%=      5-min Rain = 0
KMC1 161616Z 19008KT 13/02 A3021 RMK A01 T01330019  RH  046%=      5-min Rain = 0
KMC1 161617Z 19009G14KT 13/02 A3021 RMK A01 T01320019  RH  046%=      5-min Rain = 0
KMC1 161618Z 19008KT 13/02 A3021 RMK A01 T01320017  RH  045%=      5-min Rain = 0
KMC1 161619Z 19010KT 13/02 A3021 RMK A01 T01310018  RH  046%=      5-min Rain = 0
KMC1 161620Z 19008KT 13/02 A3021 RMK A01 T01310018  RH  046%=      5-min Rain = 0
KMC1 161621Z 18010KT 13/02 A3021 RMK A01 T01330020  RH  046%=      5-min Rain = 0
KMC1 161622Z 18010KT 13/02 A3021 RMK A01 T01340019  RH  046%=      5-min Rain = 0
KMC1 161623Z 20008KT 13/02 A3021 RMK A01 T01340018  RH  045%=      5-min Rain = 0
KMC1 161624Z 20005KT 13/02 A3021 RMK A01 T01340022  RH  046%=      5-min Rain = 0
KMC1 161625Z 18008KT 14/02 A3021 RMK A01 T01360021  RH  046%=      5-min Rain = 0
KMC1 161626Z 18010KT 14/02 A3021 RMK A01 T01360019  RH  045%=      5-min Rain = 0
KMC1 161627Z 19011KT 14/02 A3021 RMK A01 T01360019  RH  045%=      5-min Rain = 0
KMC1 161628Z 18011KT 14/02 A3021 RMK A01 T01360019  RH  045%=      5-min Rain = 0
KMC1 161629Z 18009KT 14/02 A3021 RMK A01 T01350020  RH  045%=      5-min Rain = 0
KMC1 161630Z 18009KT 14/02 A302 RMK A01 T01350019  RH  046%=      5-min Rain = 0
KMC1 161631Z 18007KT 13/02 A302 RMK A01 T01340020  RH  046%=      5-min Rain = 0
KMC1 161632Z 19007KT 14/02 A302 RMK A01 T01360022  RH  046%=      5-min Rain = 0
KMC1 161633Z 19009KT 14/02 A302 RMK A01 T01380020  RH  045%=      5-min Rain = 0
KMC1 161634Z 19008KT 14/02 A302 RMK A01 T01380019  RH  044%=      5-min Rain = 0
KMC1 161635Z 20009G15KT 14/02 A302 RMK A01 T01380019  RH  044%=      5-min Rain = 0
KMC1 161636Z 19009G15KT 14/02 A302 RMK A01 T01380018  RH  044%=      5-min Rain = 0
KMC1 161637Z 18008KT 14/02 A302 RMK A01 T01380019  RH  045%=      5-min Rain = 0
KMC1 161638Z 20008KT 14/02 A302 RMK A01 T01390018  RH  044%=      5-min Rain = 0
KMC1 161639Z 20009KT 14/02 A302 RMK A01 T01390018  RH  044%=      5-min Rain = 0
KMC1 161640Z 19008KT 14/02 A302 RMK A01 T01370018  RH  044%=      5-min Rain = 0
KMC1 161641Z 19009G14KT 14/02 A302 RMK A01 T01360019  RH  045%=      5-min Rain = 0
KMC1 161642Z 20010KT 14/02 A302 RMK A01 T01370018  RH  044%=      5-min Rain = 0
KMC1 161643Z 19007KT 14/02 A302 RMK A01 T01360018  RH  045%=      5-min Rain = 0
KMC1 161644Z 19007KT 14/02 A302 RMK A01 T01350018  RH  045%=      5-min Rain = 0
KMC1 161645Z 19010KT 14/02 A302 RMK A01 T01350019  RH  045%=      5-min Rain = 0
KMC1 161646Z 18009KT 14/02 A302 RMK A01 T01350017  RH  045%=      5-min Rain = 0
KMC1 161647Z 19011KT 13/02 A302 RMK A01 T01340016  RH  045%=      5-min Rain = 0
KMC1 161648Z 18010KT 13/02 A302 RMK A01 T01340016  RH  045%=      5-min Rain = 0
KMC1 161649Z 19008KT 13/02 A302 RMK A01 T01340017  RH  045%=      5-min Rain = 0
KMC1 161650Z 20006KT 14/02 A302 RMK A01 T01350019  RH  046%=      5-min Rain = 0
KMC1 161651Z 20006KT 14/02 A302 RMK A01 T01370021  RH  045%=      5-min Rain = 0
KMC1 161652Z 20009KT 14/02 A302 RMK A01 T01380019  RH  044%=      5-min Rain = 0
KMC1 161653Z 19006KT 14/02 A302 RMK A01 T01370019  RH  045%=      5-min Rain = 0
KMC1 161654Z 19007KT 14/02 A302 RMK A01 T01370020  RH  045%=      5-min Rain = 0
KMC1 161655Z 19007KT 14/02 A302 RMK A01 T01390021  RH  045%=      5-min Rain = 0
KMC1 161656Z 18008KT 14/02 A302 RMK A01 T01390021  RH  045%=      5-min Rain = 0
KMC1 161657Z 18009KT 14/02 A302 RMK A01 T01390021  RH  045%=      5-min Rain = 0
KMC1 161658Z 20008KT 14/02 A302 RMK A01 T01390022  RH  045%=      5-min Rain = 0
KMC1 161659Z 21008KT 14/02 A302 RMK A01 T01400022  RH  045%=      5-min Rain = 0
KMC1 161700Z 20009KT 14/02 A3019 RMK A01 T01400021  RH  044%=      5-min Rain = 0
KMC1 161701Z 21009KT 14/02 A3019 RMK A01 T01410020  RH  044%=      5-min Rain = 0
KMC1 161702Z 20009KT 14/02 A3019 RMK A01 T01410019  RH  044%=      5-min Rain = 0
KMC1 161703Z 21006KT 14/02 A3019 RMK A01 T01400020  RH  044%=      5-min Rain = 0
KMC1 161704Z 20010KT 14/02 A3019 RMK A01 T01420021  RH  044%=      5-min Rain = 0
KMC1 161705Z 20009KT 14/02 A3019 RMK A01 T01420018  RH  043%=      5-min Rain = 0
KMC1 161706Z 18008KT 14/02 A3019 RMK A01 T01420019  RH  043%=      5-min Rain = 0
KMC1 161707Z 17008KT 14/02 A3019 RMK A01 T01430020  RH  043%=      5-min Rain = 0
KMC1 161708Z 17007KT 15/02 A3019 RMK A01 T01450022  RH  043%=      5-min Rain = 0
KMC1 161709Z 17007KT 15/02 A3019 RMK A01 T01480022  RH  043%=      5-min Rain = 0
KMC1 161710Z 17007KT 15/02 A3019 RMK A01 T01480020  RH  042%=      5-min Rain = 0
KMC1 161711Z 18010KT 15/02 A3019 RMK A01 T01470019  RH  042%=      5-min Rain = 0
KMC1 161712Z 18009KT 15/02 A3019 RMK A01 T01460018  RH  042%=      5-min Rain = 0
KMC1 161713Z 17009KT 15/02 A3019 RMK A01 T01450020  RH  043%=      5-min Rain = 0
KMC1 161714Z 17010KT 15/02 A3018 RMK A01 T01460020  RH  042%=      5-min Rain = 0
KMC1 161715Z 17009KT 15/02 A3018 RMK A01 T01460017  RH  042%=      5-min Rain = 0
KMC1 161716Z 17006KT 15/02 A3018 RMK A01 T01450021  RH  043%=      5-min Rain = 0
KMC1 161717Z 17010KT 15/02 A3018 RMK A01 T01480022  RH  042%=      5-min Rain = 0
KMC1 161718Z 18009KT 15/02 A3018 RMK A01 T01490018  RH  041%=      5-min Rain = 0
KMC1 161719Z 17008KT 15/02 A3018 RMK A01 T01480021  RH  042%=      5-min Rain = 0
KMC1 161720Z 17008KT 15/02 A3018 RMK A01 T01500022  RH  042%=      5-min Rain = 0
KMC1 161721Z 17005KT 15/02 A3018 RMK A01 T01510023  RH  042%=      5-min Rain = 0
KMC1 161722Z 20007KT 15/02 A3018 RMK A01 T01520020  RH  041%=      5-min Rain = 0
KMC1 161723Z 20006KT 15/02 A3018 RMK A01 T01510022  RH  041%=      5-min Rain = 0
KMC1 161724Z 18009KT 15/02 A3018 RMK A01 T01530022  RH  041%=      5-min Rain = 0
KMC1 161725Z 17007KT 15/02 A3018 RMK A01 T01530020  RH  040%=      5-min Rain = 0
KMC1 161726Z 16007KT 15/02 A3017 RMK A01 T01540020  RH  040%=      5-min Rain = 0
KMC1 161727Z 15009KT 15/02 A3017 RMK A01 T01530020  RH  040%=      5-min Rain = 0
KMC1 161728Z 18009KT 15/02 A3017 RMK A01 T01530019  RH  040%=      5-min Rain = 0
KMC1 161729Z 17008KT 15/02 A3017 RMK A01 T01540021  RH  041%=      5-min Rain = 0
KMC1 161730Z 18009KT 16/02 A3017 RMK A01 T01550020  RH  040%=      5-min Rain = 0
KMC1 161731Z 19008KT 16/02 A3017 RMK A01 T01550020  RH  040%=      5-min Rain = 0
KMC1 161732Z 18007KT 16/02 A3017 RMK A01 T01550019  RH  040%=      5-min Rain = 0
KMC1 161733Z 18007KT 16/02 A3017 RMK A01 T01550019  RH  040%=      5-min Rain = 0
KMC1 161734Z 19007KT 15/02 A3017 RMK A01 T01540020  RH  040%=      5-min Rain = 0
KMC1 161735Z 20006KT 16/02 A3017 RMK A01 T01550020  RH  040%=      5-min Rain = 0
KMC1 161736Z 19007KT 16/02 A3017 RMK A01 T01550019  RH  040%=      5-min Rain = 0
KMC1 161737Z 20008KT 16/02 A3017 RMK A01 T01550019  RH  040%=      5-min Rain = 0
KMC1 161738Z 19008KT 16/02 A3017 RMK A01 T01550019  RH  040%=      5-min Rain = 0
KMC1 161739Z 19007KT 16/02 A3017 RMK A01 T01560019  RH  040%=      5-min Rain = 0
KMC1 161740Z 19006KT 16/02 A3017 RMK A01 T01560020  RH  040%=      5-min Rain = 0
KMC1 161741Z 18008G13KT 16/02 A3017 RMK A01 T01580022  RH  040%=      5-min Rain = 0
KMC1 161742Z 20009KT 16/02 A3017 RMK A01 T01580020  RH  039%=      5-min Rain = 0
KMC1 161743Z 18008KT 16/02 A3016 RMK A01 T01580021  RH  040%=      5-min Rain = 0
KMC1 161744Z 18010KT 16/02 A3016 RMK A01 T01590019  RH  039%=      5-min Rain = 0
KMC1 161745Z 18005KT 16/02 A3016 RMK A01 T01570020  RH  039%=      5-min Rain = 0
KMC1 161746Z 20007KT 16/03 A3016 RMK A01 T01600025  RH  040%=      5-min Rain = 0
KMC1 161747Z 18007KT 16/02 A3016 RMK A01 T01620023  RH  039%=      5-min Rain = 0
KMC1 161748Z 19007KT 16/02 A3016 RMK A01 T01610023  RH  039%=      5-min Rain = 0
KMC1 161749Z 19008KT 16/02 A3016 RMK A01 T01600022  RH  039%=      5-min Rain = 0
KMC1 161750Z 19010KT 16/02 A3016 RMK A01 T01580020  RH  039%=      5-min Rain = 0
KMC1 161751Z 20011KT 16/02 A3016 RMK A01 T01570018  RH  039%=      5-min Rain = 0
KMC1 161752Z 19010KT 16/02 A3016 RMK A01 T01560018  RH  039%=      5-min Rain = 0
KMC1 161753Z 19007KT 16/02 A3016 RMK A01 T01560018  RH  039%=      5-min Rain = 0
KMC1 161754Z 19007KT 16/02 A3016 RMK A01 T01580022  RH  040%=      5-min Rain = 0
KMC1 161755Z 18007G12KT 16/02 A3016 RMK A01 T01610022  RH  039%=      5-min Rain = 0
KMC1 161756Z 18011KT 16/02 A3016 RMK A01 T01620018  RH  038%=      5-min Rain = 0
KMC1 161757Z 19009KT 16/02 A3016 RMK A01 T01600015  RH  037%=      5-min Rain = 0
KMC1 161758Z 18008KT 16/01 A3016 RMK A01 T01590014  RH  037%=      5-min Rain = 0
KMC1 161759Z 17009KT 16/02 A3016 RMK A01 T01580016  RH  038%=      5-min Rain = 0
KMC1 161800Z 19009G14KT 16/01 A3015 RMK A01 T01590013  RH  037%=      5-min Rain = 0
KMC1 161801Z 18007KT 16/02 A3015 RMK A01 T01580015  RH  038%=      5-min Rain = 0
KMC1 161802Z 20007KT 16/02 A3015 RMK A01 T01590018  RH  038%=      5-min Rain = 0
KMC1 161803Z 18009KT 16/02 A3015 RMK A01 T01590016  RH  038%=      5-min Rain = 0
KMC1 161804Z 19008G13KT 16/02 A3015 RMK A01 T01600015  RH  038%=      5-min Rain = 0
KMC1 161805Z 18007KT 16/01 A3015 RMK A01 T01590014  RH  037%=      5-min Rain = 0
KMC1 161806Z 18010KT 16/01 A3015 RMK A01 T01590014  RH  037%=      5-min Rain = 0
KMC1 161807Z 17009KT 16/01 A3015 RMK A01 T01570012  RH  037%=      5-min Rain = 0
KMC1 161808Z 18010KT 16/02 A3015 RMK A01 T01560015  RH  038%=      5-min Rain = 0
KMC1 161809Z 17008KT 16/01 A3015 RMK A01 T01560014  RH  038%=      5-min Rain = 0
KMC1 161810Z 18007KT 16/02 A3015 RMK A01 T01560016  RH  039%=      5-min Rain = 0
KMC1 161811Z 20008KT 16/02 A3015 RMK A01 T01570019  RH  039%=      5-min Rain = 0
KMC1 161812Z 19008KT 16/02 A3015 RMK A01 T01580018  RH  039%=      5-min Rain = 0
KMC1 161813Z 19010KT 16/02 A3015 RMK A01 T01560015  RH  038%=      5-min Rain = 0
KMC1 161814Z 19007KT 15/02 A3015 RMK A01 T01540017  RH  040%=      5-min Rain = 0
KMC1 161815Z 19006KT 15/02 A3015 RMK A01 T01540019  RH  040%=      5-min Rain = 0
KMC1 161816Z 19008KT 16/02 A3015 RMK A01 T01560018  RH  039%=      5-min Rain = 0
KMC1 161817Z 20011KT 16/02 A3015 RMK A01 T01570017  RH  039%=      5-min Rain = 0
KMC1 161818Z 19009G14KT 16/02 A3015 RMK A01 T01560015  RH  038%=      5-min Rain = 0
KMC1 161819Z 19009G14KT 16/02 A3015 RMK A01 T01550015  RH  039%=      5-min Rain = 0
KMC1 161820Z 19007KT 16/02 A3015 RMK A01 T01550017  RH  039%=      5-min Rain = 0
KMC1 161821Z 17006KT 16/02 A3015 RMK A01 T01560020  RH  040%=      5-min Rain = 0
KMC1 161822Z 16009KT 16/02 A3015 RMK A01 T01590019  RH  039%=      5-min Rain = 0
KMC1 161823Z 16008KT 16/02 A3015 RMK A01 T01590018  RH  038%=      5-min Rain = 0
KMC1 161824Z 17010KT 16/02 A3015 RMK A01 T01580017  RH  039%=      5-min Rain = 0
KMC1 161825Z 17008KT 16/02 A3015 RMK A01 T01570018  RH  039%=      5-min Rain = 0
KMC1 161826Z 17010KT 16/02 A3014 RMK A01 T01580018  RH  039%=      5-min Rain = 0
KMC1 161827Z 15008KT 16/02 A3014 RMK A01 T01590018  RH  039%=      5-min Rain = 0
KMC1 161828Z 16008KT 16/02 A3014 RMK A01 T01580018  RH  039%=      5-min Rain = 0
KMC1 161829Z 16008G14KT 16/02 A3014 RMK A01 T01590019  RH  039%=      5-min Rain = 0
KMC1 161830Z 16011KT 16/02 A3014 RMK A01 T01590020  RH  039%=      5-min Rain = 0
KMC1 161831Z 17008KT 16/02 A3014 RMK A01 T01590020  RH  039%=      5-min Rain = 0
KMC1 161832Z 17008G13KT 16/02 A3014 RMK A01 T01590019  RH  039%=      5-min Rain = 0
KMC1 161833Z 19009KT 16/02 A3014 RMK A01 T01590021  RH  040%=      5-min Rain = 0
KMC1 161834Z 19011KT 16/02 A3014 RMK A01 T01600022  RH  039%=      5-min Rain = 0
KMC1 161835Z 20010KT 16/02 A3014 RMK A01 T01600019  RH  039%=      5-min Rain = 0
KMC1 161836Z 20008KT 16/02 A3014 RMK A01 T01580018  RH  039%=      5-min Rain = 0
KMC1 161837Z 18009KT 16/02 A3014 RMK A01 T01570020  RH  039%=      5-min Rain = 0
KMC1 161838Z 18009KT 16/02 A3014 RMK A01 T01570020  RH  040%=      5-min Rain = 0
KMC1 161839Z 19010G15KT 16/02 A3014 RMK A01 T01580020  RH  039%=      5-min Rain = 0
KMC1 161840Z 18007KT 16/02 A3014 RMK A01 T01580018  RH  039%=      5-min Rain = 0
KMC1 161841Z 19007KT 16/02 A3014 RMK A01 T01580019  RH  039%=      5-min Rain = 0
KMC1 161842Z 19008KT 16/02 A3014 RMK A01 T01590019  RH  039%=      5-min Rain = 0
KMC1 161843Z 18008KT 16/02 A3014 RMK A01 T01590018  RH  039%=      5-min Rain = 0
KMC1 161844Z 19005KT 16/02 A3014 RMK A01 T01580020  RH  039%=      5-min Rain = 0
KMC1 161845Z 18007G12KT 16/03 A3014 RMK A01 T01600025  RH  040%=      5-min Rain = 0
KMC1 161846Z 18008KT 16/03 A3014 RMK A01 T01630025  RH  039%=      5-min Rain = 0
KMC1 161847Z 20007KT 16/02 A3013 RMK A01 T01630024  RH  039%=      5-min Rain = 0
KMC1 161848Z 18009KT 16/03 A3013 RMK A01 T01630025  RH  039%=      5-min Rain = 0
KMC1 161849Z 17007KT 16/02 A3013 RMK A01 T01640023  RH  039%=      5-min Rain = 0
KMC1 161850Z 18008KT 16/02 A3013 RMK A01 T01630024  RH  039%=      5-min Rain = 0
KMC1 161851Z 20009KT 16/03 A3013 RMK A01 T01630025  RH  039%=      5-min Rain = 0
KMC1 161852Z 18008KT 17/03 A3013 RMK A01 T01650027  RH  040%=      5-min Rain = 0
KMC1 161853Z 18009KT 17/03 A3013 RMK A01 T01660026  RH  039%=      5-min Rain = 0
KMC1 161854Z 20008KT 17/03 A3013 RMK A01 T01660028  RH  040%=      5-min Rain = 0
KMC1 161855Z 20008KT 17/03 A3013 RMK A01 T01670027  RH  039%=      5-min Rain = 0
KMC1 161856Z 21008KT 17/03 A3013 RMK A01 T01660027  RH  039%=      5-min Rain = 0
KMC1 161857Z 19008KT 17/03 A3013 RMK A01 T01660027  RH  039%=      5-min Rain = 0
KMC1 161858Z 18008KT 17/03 A3013 RMK A01 T01660027  RH  039%=      5-min Rain = 0
KMC1 161859Z 17009KT 17/03 A3013 RMK A01 T01680030  RH  040%=      5-min Rain = 0
KMC1 161900Z 16009G14KT 17/03 A3013 RMK A01 T01710030  RH  039%=      5-min Rain = 0
KMC1 161901Z 17011KT 17/03 A3013 RMK A01 T01730029  RH  038%=      5-min Rain = 0
KMC1 161902Z 18007KT 17/03 A3012 RMK A01 T01730026  RH  037%=      5-min Rain = 0
KMC1 161903Z 15007KT 17/03 A3012 RMK A01 T01710025  RH  038%=      5-min Rain = 0
KMC1 161904Z 17009G14KT 17/03 A3012 RMK A01 T01710027  RH  038%=      5-min Rain = 0
KMC1 161905Z 19009KT 17/03 A3012 RMK A01 T01730027  RH  038%=      5-min Rain = 0
KMC1 161906Z 19009G14KT 17/03 A3012 RMK A01 T01730027  RH  037%=      5-min Rain = 0
KMC1 161907Z 19010KT 17/03 A3012 RMK A01 T01730027  RH  037%=      5-min Rain = 0
KMC1 161908Z 20008KT 17/03 A3012 RMK A01 T01740026  RH  037%=      5-min Rain = 0
KMC1 161909Z 20010KT 17/03 A3012 RMK A01 T01730026  RH  037%=      5-min Rain = 0
KMC1 161910Z 17010KT 17/03 A3012 RMK A01 T01720026  RH  038%=      5-min Rain = 0
KMC1 161911Z 16010KT 17/03 A3012 RMK A01 T01730026  RH  037%=      5-min Rain = 0
KMC1 161912Z 16008KT 17/03 A3012 RMK A01 T01740025  RH  037%=      5-min Rain = 0
KMC1 161913Z 16007KT 18/03 A3012 RMK A01 T01750025  RH  037%=      5-min Rain = 0
KMC1 161914Z 15007KT 18/02 A3011 RMK A01 T01760024  RH  036%=      5-min Rain = 0
KMC1 161915Z 17004KT 18/02 A3011 RMK A01 T01770024  RH  036%=      5-min Rain = 0
KMC1 161916Z 18006G12KT 18/03 A3011 RMK A01 T01780025  RH  036%=      5-min Rain = 0
KMC1 161917Z 18007KT 18/03 A3011 RMK A01 T01800028  RH  036%=      5-min Rain = 0
KMC1 161918Z 16008KT 18/03 A3011 RMK A01 T01810027  RH  036%=      5-min Rain = 0
KMC1 161919Z 15010KT 18/03 A3011 RMK A01 T01810028  RH  036%=      5-min Rain = 0
KMC1 161920Z 15010KT 18/02 A3011 RMK A01 T01780024  RH  036%=      5-min Rain = 0
KMC1 161921Z 15008KT 18/03 A3011 RMK A01 T01750025  RH  037%=      5-min Rain = 0
KMC1 161922Z 16006KT 17/03 A3011 RMK A01 T01740027  RH  037%=      5-min Rain = 0
KMC1 161923Z 15006G11KT 18/03 A3011 RMK A01 T01750029  RH  037%=      5-min Rain = 0
KMC1 161924Z 15008KT 18/03 A3011 RMK A01 T01770029  RH  037%=      5-min Rain = 0
KMC1 161925Z 15009KT 18/03 A3011 RMK A01 T01780029  RH  037%=      5-min Rain = 0
KMC1 161926Z 15008G13KT 18/03 A301 RMK A01 T01790028  RH  036%=      5-min Rain = 0
KMC1 161927Z 15006KT 18/03 A301 RMK A01 T01790028  RH  036%=      5-min Rain = 0
KMC1 161928Z 18007KT 18/03 A301 RMK A01 T01800030  RH  037%=      5-min Rain = 0
KMC1 161929Z 18007G12KT 18/03 A301 RMK A01 T01810027  RH  036%=      5-min Rain = 0
KMC1 161930Z 18007KT 18/03 A301 RMK A01 T01800029  RH  037%=      5-min Rain = 0
KMC1 161931Z 16009KT 18/03 A301 RMK A01 T01810029  RH  036%=      5-min Rain = 0
KMC1 161932Z 17008KT 18/03 A301 RMK A01 T01800029  RH  036%=      5-min Rain = 0
KMC1 161933Z 17013KT 18/03 A301 RMK A01 T01800030  RH  037%=      5-min Rain = 0
KMC1 161934Z 17008G13KT 18/03 A301 RMK A01 T01780028  RH  037%=      5-min Rain = 0
KMC1 161935Z 17006KT 18/03 A301 RMK A01 T01780031  RH  037%=      5-min Rain = 0
KMC1 161936Z 17008KT 18/03 A301 RMK A01 T01800031  RH  037%=      5-min Rain = 0
KMC1 161937Z 18011KT 18/03 A301 RMK A01 T01810032  RH  037%=      5-min Rain = 0
KMC1 161938Z 18010KT 18/03 A301 RMK A01 T01790029  RH  037%=      5-min Rain = 0
KMC1 161939Z 22009KT 18/03 A301 RMK A01 T01770032  RH  038%=      5-min Rain = 0
KMC1 161940Z 22010KT 18/03 A301 RMK A01 T01770031  RH  038%=      5-min Rain = 0
KMC1 161941Z 20008KT 18/03 A301 RMK A01 T01760029  RH  037%=      5-min Rain = 0
KMC1 161942Z 21005KT 18/03 A301 RMK A01 T01760032  RH  038%=      5-min Rain = 0
KMC1 161943Z 19006KT 18/03 A301 RMK A01 T01780033  RH  038%=      5-min Rain = 0
KMC1 161944Z 19009G14KT 18/03 A301 RMK A01 T01800033  RH  038%=      5-min Rain = 0
KMC1 161945Z 19009KT 18/04 A301 RMK A01 T01810035  RH  038%=      5-min Rain = 0
KMC1 161946Z 20011G17KT 18/04 A301 RMK A01 T01830036  RH  038%=      5-min Rain = 0
KMC1 161947Z 20010KT 18/04 A301 RMK A01 T01830035  RH  038%=      5-min Rain = 0
KMC1 161948Z 19008KT 18/04 A301 RMK A01 T01820035  RH  038%=      5-min Rain = 0
KMC1 161949Z 18009KT 18/03 A301 RMK A01 T01820034  RH  037%=      5-min Rain = 0
KMC1 161950Z 18007KT 18/03 A301 RMK A01 T01820033  RH  037%=      5-min Rain = 0
KMC1 161951Z 19006KT 18/04 A3009 RMK A01 T01810035  RH  038%=      5-min Rain = 0
KMC1 161952Z 19008KT 18/04 A3009 RMK A01 T01830036  RH  038%=      5-min Rain = 0
KMC1 161953Z 19009G14KT 18/04 A3009 RMK A01 T01830035  RH  037%=      5-min Rain = 0
KMC1 161954Z 19007KT 18/04 A3009 RMK A01 T01830037  RH  038%=      5-min Rain = 0
KMC1 161955Z 19008G15KT 18/04 A3009 RMK A01 T01830036  RH  038%=      5-min Rain = 0
KMC1 161956Z 19012KT 18/04 A3009 RMK A01 T01810035  RH  038%=      5-min Rain = 0
KMC1 161957Z 20010KT 18/03 A3009 RMK A01 T01780033  RH  038%=      5-min Rain = 0
KMC1 161958Z 18008KT 18/04 A3009 RMK A01 T01770036  RH  039%=      5-min Rain = 0
KMC1 161959Z 17008KT 18/04 A3009 RMK A01 T01790037  RH  039%=      5-min Rain = 0
KMC1 162000Z 18008KT 18/04 A3009 RMK A01 T01810037  RH  038%=      5-min Rain = 0
KMC1 162001Z 17009KT 18/04 A3008 RMK A01 T01820037  RH  038%=      5-min Rain = 0
KMC1 162002Z 16008G13KT 18/04 A3008 RMK A01 T01820037  RH  038%=      5-min Rain = 0
KMC1 162003Z 18008KT 18/04 A3008 RMK A01 T01830038  RH  038%=      5-min Rain = 0
KMC1 162004Z 19011KT 18/04 A3008 RMK A01 T01840038  RH  038%=      5-min Rain = 0
KMC1 162005Z 20009KT 18/04 A3008 RMK A01 T01830036  RH  038%=      5-min Rain = 0
KMC1 162006Z 20009G14KT 18/04 A3008 RMK A01 T01810036  RH  038%=      5-min Rain = 0
KMC1 162007Z 19008KT 18/04 A3008 RMK A01 T01810038  RH  039%=      5-min Rain = 0
KMC1 162008Z 18009KT 18/04 A3008 RMK A01 T01810036  RH  038%=      5-min Rain = 0
KMC1 162009Z 19006KT 18/04 A3008 RMK A01 T01800035  RH  038%=      5-min Rain = 0
KMC1 162010Z 16004KT 18/04 A3008 RMK A01 T01790038  RH  039%=      5-min Rain = 0
KMC1 162011Z 18009KT 18/04 A3008 RMK A01 T01810038  RH  039%=      5-min Rain = 0
KMC1 162012Z 18009KT 18/04 A3008 RMK A01 T01820039  RH  038%=      5-min Rain = 0
KMC1 162013Z 20013KT 18/04 A3008 RMK A01 T01830038  RH  038%=      5-min Rain = 0
KMC1 162014Z 19011KT 18/04 A3008 RMK A01 T01820037  RH  038%=      5-min Rain = 0
KMC1 162015Z 20010G15KT 18/04 A3008 RMK A01 T01810037  RH  038%=      5-min Rain = 0
KMC1 162016Z 19006KT 18/04 A3008 RMK A01 T01800039  RH  039%=      5-min Rain = 0
KMC1 162017Z 19010KT 18/04 A3008 RMK A01 T01820039  RH  039%=      5-min Rain = 0
KMC1 162018Z 18008KT 18/04 A3008 RMK A01 T01820039  RH  039%=      5-min Rain = 0
KMC1 162019Z 20009KT 18/04 A3008 RMK A01 T01820038  RH  038%=      5-min Rain = 0
KMC1 162020Z 21009KT 18/04 A3008 RMK A01 T01800037  RH  039%=      5-min Rain = 0
KMC1 162021Z 21009KT 18/04 A3008 RMK A01 T01790039  RH  039%=      5-min Rain = 0
KMC1 162022Z 20009G14KT 18/04 A3008 RMK A01 T01800040  RH  039%=      5-min Rain = 0
KMC1 162023Z 20006KT 18/04 A3008 RMK A01 T01800040  RH  039%=      5-min Rain = 0
KMC1 162024Z 19007KT 18/04 A3008 RMK A01 T01810040  RH  039%=      5-min Rain = 0
KMC1 162025Z 19006KT 18/04 A3008 RMK A01 T01810039  RH  039%=      5-min Rain = 0
KMC1 162026Z 18008KT 18/04 A3008 RMK A01 T01810039  RH  039%=      5-min Rain = 0
KMC1 162027Z 18009G14KT 18/04 A3008 RMK A01 T01810040  RH  039%=      5-min Rain = 0
KMC1 162028Z 18009KT 18/04 A3007 RMK A01 T01810039  RH  039%=      5-min Rain = 0
KMC1 162029Z 17010KT 18/04 A3007 RMK A01 T01810040  RH  039%=      5-min Rain = 0
KMC1 162030Z 18012KT 18/04 A3007 RMK A01 T01810039  RH  039%=      5-min Rain = 0
KMC1 162031Z 17009KT 18/04 A3007 RMK A01 T01800039  RH  039%=      5-min Rain = 0
KMC1 162032Z 17007KT 18/04 A3007 RMK A01 T01800040  RH  040%=      5-min Rain = 0
KMC1 162033Z 18007KT 18/04 A3007 RMK A01 T01800040  RH  039%=      5-min Rain = 0
KMC1 162034Z 17009KT 18/04 A3007 RMK A01 T01810039  RH  039%=      5-min Rain = 0
KMC1 162035Z 17008KT 18/04 A3007 RMK A01 T01810040  RH  039%=      5-min Rain = 0
KMC1 162036Z 18008KT 18/04 A3007 RMK A01 T01800039  RH  039%=      5-min Rain = 0
KMC1 162037Z 18008KT 18/04 A3007 RMK A01 T01800040  RH  039%=      5-min Rain = 0
KMC1 162038Z 18009KT 18/04 A3007 RMK A01 T01800038  RH  039%=      5-min Rain = 0
KMC1 162039Z 20007KT 18/04 A3007 RMK A01 T01780037  RH  039%=      5-min Rain = 0
KMC1 162040Z 20007KT 18/04 A3007 RMK A01 T01770037  RH  039%=      5-min Rain = 0
KMC1 162041Z 19006KT 18/04 A3007 RMK A01 T01770039  RH  040%=      5-min Rain = 0
KMC1 162042Z 17008KT 18/04 A3007 RMK A01 T01770039  RH  040%=      5-min Rain = 0
KMC1 162043Z 16005KT 18/04 A3007 RMK A01 T01780039  RH  040%=      5-min Rain = 0
KMC1 162044Z 16007KT 18/04 A3007 RMK A01 T01780039  RH  040%=      5-min Rain = 0
KMC1 162045Z 20006KT 18/04 A3007 RMK A01 T01780040  RH  040%=      5-min Rain = 0
KMC1 162046Z 17005KT 18/04 A3007 RMK A01 T01790041  RH  040%=      5-min Rain = 0
KMC1 162047Z 19006KT 18/04 A3007 RMK A01 T01800041  RH  040%=      5-min Rain = 0
KMC1 162048Z 19007G12KT 18/04 A3007 RMK A01 T01800040  RH  039%=      5-min Rain = 0
KMC1 162049Z 18010KT 18/04 A3007 RMK A01 T01800041  RH  040%=      5-min Rain = 0
KMC1 162050Z 18008KT 18/04 A3007 RMK A01 T01790039  RH  039%=      5-min Rain = 0
KMC1 162051Z 17007KT 18/04 A3007 RMK A01 T01790039  RH  040%=      5-min Rain = 0
KMC1 162052Z 16008KT 18/04 A3007 RMK A01 T01780040  RH  040%=      5-min Rain = 0
KMC1 162053Z 17009KT 18/04 A3007 RMK A01 T01780040  RH  040%=      5-min Rain = 0
KMC1 162054Z 17009KT 18/04 A3007 RMK A01 T01780041  RH  040%=      5-min Rain = 0
KMC1 162055Z 17012KT 18/04 A3007 RMK A01 T01790040  RH  040%=      5-min Rain = 0
KMC1 162056Z 18010KT 18/04 A3007 RMK A01 T01780041  RH  040%=      5-min Rain = 0
KMC1 162057Z 20008KT 18/04 A3007 RMK A01 T01790042  RH  040%=      5-min Rain = 0
KMC1 162058Z 22007G12KT 18/04 A3007 RMK A01 T01800043  RH  040%=      5-min Rain = 0
KMC1 162059Z 22009KT 18/04 A3007 RMK A01 T01800043  RH  040%=      5-min Rain = 0
KMC1 162100Z 19007KT 18/04 A3007 RMK A01 T01800042  RH  040%=      5-min Rain = 0
KMC1 162101Z 20006G13KT 18/04 A3007 RMK A01 T01800043  RH  040%=      5-min Rain = 0
KMC1 162102Z 19010KT 18/04 A3007 RMK A01 T01800042  RH  040%=      5-min Rain = 0
KMC1 162103Z 19010KT 18/04 A3007 RMK A01 T01800041  RH  040%=      5-min Rain = 0
KMC1 162104Z 19009KT 18/04 A3007 RMK A01 T01790040  RH  040%=      5-min Rain = 0
KMC1 162105Z 19010KT 18/04 A3007 RMK A01 T01790040  RH  040%=      5-min Rain = 0
KMC1 162106Z 18006KT 18/04 A3007 RMK A01 T01780039  RH  040%=      5-min Rain = 0
KMC1 162107Z 18008KT 18/04 A3007 RMK A01 T01780040  RH  040%=      5-min Rain = 0
KMC1 162108Z 17008G13KT 18/04 A3007 RMK A01 T01780040  RH  040%=      5-min Rain = 0
KMC1 162109Z 18011KT 18/04 A3007 RMK A01 T01770039  RH  040%=      5-min Rain = 0
KMC1 162110Z 17008KT 18/04 A3007 RMK A01 T01770038  RH  040%=      5-min Rain = 0
KMC1 162111Z 17008KT 18/04 A3006 RMK A01 T01760039  RH  040%=      5-min Rain = 0
KMC1 162112Z 18006KT 18/04 A3006 RMK A01 T01760039  RH  040%=      5-min Rain = 0
KMC1 162113Z 18008KT 18/04 A3006 RMK A01 T01780042  RH  040%=      5-min Rain = 0
KMC1 162114Z 18008KT 18/04 A3006 RMK A01 T01790040  RH  040%=      5-min Rain = 0
KMC1 162115Z 18009KT 18/04 A3006 RMK A01 T01790040  RH  040%=      5-min Rain = 0
KMC1 162116Z 18010KT 18/04 A3006 RMK A01 T01790040  RH  040%=      5-min Rain = 0
KMC1 162117Z 18009KT 18/04 A3006 RMK A01 T01780039  RH  040%=      5-min Rain = 0
KMC1 162118Z 18008KT 18/04 A3006 RMK A01 T01770040  RH  040%=      5-min Rain = 0
KMC1 162119Z 18007G12KT 18/04 A3006 RMK A01 T01770042  RH  041%=      5-min Rain = 0
KMC1 162120Z 18008KT 18/04 A3006 RMK A01 T01780042  RH  040%=      5-min Rain = 0
KMC1 162121Z 17009KT 18/04 A3006 RMK A01 T01790042  RH  040%=      5-min Rain = 0
KMC1 162122Z 17009KT 18/04 A3006 RMK A01 T01790041  RH  040%=      5-min Rain = 0
KMC1 162123Z 17007KT 18/04 A3006 RMK A01 T01790041  RH  040%=      5-min Rain = 0
KMC1 162124Z 19007G12KT 18/04 A3006 RMK A01 T01780042  RH  040%=      5-min Rain = 0
KMC1 162125Z 19009KT 18/04 A3006 RMK A01 T01790042  RH  040%=      5-min Rain = 0
KMC1 162126Z 19009KT 18/04 A3006 RMK A01 T01780041  RH  040%=      5-min Rain = 0
KMC1 162127Z 20007KT 18/04 A3006 RMK A01 T01780042  RH  040%=      5-min Rain = 0
KMC1 162128Z 19007KT 18/04 A3007 RMK A01 T01790042  RH  040%=      5-min Rain = 0
KMC1 162129Z 19008G13KT 18/04 A3007 RMK A01 T01790041  RH  040%=      5-min Rain = 0
KMC1 162130Z 18010KT 18/04 A3007 RMK A01 T01790041  RH  040%=      5-min Rain = 0
KMC1 162131Z 19008KT 18/04 A3007 RMK A01 T01780039  RH  040%=      5-min Rain = 0
KMC1 162132Z 18008KT 18/04 A3007 RMK A01 T01780041  RH  040%=      5-min Rain = 0
KMC1 162133Z 18008KT 18/04 A3007 RMK A01 T01780041  RH  040%=      5-min Rain = 0
KMC1 162134Z 18007KT 18/04 A3007 RMK A01 T01790042  RH  040%=      5-min Rain = 0
KMC1 162135Z 19008KT 18/04 A3007 RMK A01 T01800042  RH  040%=      5-min Rain = 0
KMC1 162136Z 20009KT 18/04 A3007 RMK A01 T01800041  RH  040%=      5-min Rain = 0
KMC1 162137Z 19008KT 18/04 A3007 RMK A01 T01800041  RH  040%=      5-min Rain = 0
KMC1 162138Z 18007KT 18/04 A3007 RMK A01 T01800041  RH  040%=      5-min Rain = 0
KMC1 162139Z 21006KT 18/04 A3007 RMK A01 T01800042  RH  040%=      5-min Rain = 0
KMC1 162140Z 20006KT 18/04 A3007 RMK A01 T01800042  RH  040%=      5-min Rain = 0
KMC1 162141Z 21008KT 18/04 A3007 RMK A01 T01820043  RH  040%=      5-min Rain = 0
KMC1 162142Z 20010KT 18/04 A3007 RMK A01 T01830042  RH  039%=      5-min Rain = 0
KMC1 162143Z 21009KT 18/04 A3007 RMK A01 T01820041  RH  039%=      5-min Rain = 0
KMC1 162144Z 21006KT 18/04 A3007 RMK A01 T01810042  RH  040%=      5-min Rain = 0
KMC1 162145Z 20006KT 18/04 A3007 RMK A01 T01810042  RH  040%=      5-min Rain = 0
KMC1 162146Z 19006KT 18/04 A3007 RMK A01 T01810041  RH  039%=      5-min Rain = 0
KMC1 162147Z 17005KT 18/04 A3007 RMK A01 T01810044  RH  040%=      5-min Rain = 0
KMC1 162148Z 19008KT 18/05 A3007 RMK A01 T01830045  RH  040%=      5-min Rain = 0
KMC1 162149Z 19012KT 18/04 A3007 RMK A01 T01830041  RH  039%=      5-min Rain = 0
KMC1 162150Z 18010KT 18/04 A3007 RMK A01 T01810040  RH  039%=      5-min Rain = 0
KMC1 162151Z 16008G14KT 18/04 A3007 RMK A01 T01790041  RH  040%=      5-min Rain = 0
KMC1 162152Z 17008KT 18/04 A3007 RMK A01 T01790042  RH  040%=      5-min Rain = 0
KMC1 162153Z 17010KT 18/04 A3007 RMK A01 T01780042  RH  040%=      5-min Rain = 0
KMC1 162154Z 18011KT 18/04 A3007 RMK A01 T01770041  RH  041%=      5-min Rain = 0
KMC1 162155Z 18008KT 18/04 A3007 RMK A01 T01760042  RH  041%=      5-min Rain = 0
KMC1 162156Z 19009KT 18/04 A3007 RMK A01 T01760043  RH  041%=      5-min Rain = 0
KMC1 162157Z 20008KT 18/04 A3007 RMK A01 T01750042  RH  041%=      5-min Rain = 0
KMC1 162158Z 20008KT 17/04 A3007 RMK A01 T01740042  RH  042%=      5-min Rain = 0
KMC1 162159Z 19007KT 17/04 A3006 RMK A01 T01740042  RH  042%=      5-min Rain = 0
KMC1 162200Z 18008KT 17/04 A3006 RMK A01 T01730043  RH  042%=      5-min Rain = 0
KMC1 162201Z 19006KT 17/04 A3006 RMK A01 T01730044  RH  042%=      5-min Rain = 0
KMC1 162202Z 18008KT 17/04 A3006 RMK A01 T01730044  RH  042%=      5-min Rain = 0
KMC1 162203Z 17010KT 17/04 A3006 RMK A01 T01730044  RH  042%=      5-min Rain = 0
KMC1 162204Z 17008KT 17/04 A3006 RMK A01 T01730044  RH  042%=      5-min Rain = 0
KMC1 162205Z 17009KT 17/04 A3006 RMK A01 T01730043  RH  042%=      5-min Rain = 0
KMC1 162206Z 18008KT 17/04 A3006 RMK A01 T01720042  RH  042%=      5-min Rain = 0
KMC1 162207Z 18005KT 17/04 A3006 RMK A01 T01710043  RH  043%=      5-min Rain = 0
KMC1 162208Z 17008KT 17/04 A3006 RMK A01 T01700044  RH  043%=      5-min Rain = 0
KMC1 162209Z 17008KT 17/04 A3006 RMK A01 T01700042  RH  043%=      5-min Rain = 0
KMC1 162210Z 17007KT 17/04 A3006 RMK A01 T01690043  RH  043%=      5-min Rain = 0
KMC1 162211Z 18008KT 17/04 A3006 RMK A01 T01700044  RH  043%=      5-min Rain = 0
KMC1 162212Z 16008KT 17/04 A3006 RMK A01 T01690043  RH  043%=      5-min Rain = 0
KMC1 162213Z 17006KT 17/04 A3006 RMK A01 T01690044  RH  043%=      5-min Rain = 0
KMC1 162214Z 18008KT 17/04 A3006 RMK A01 T01700044  RH  043%=      5-min Rain = 0
KMC1 162215Z 17009KT 17/04 A3006 RMK A01 T01690041  RH  043%=      5-min Rain = 0
KMC1 162216Z 17007KT 17/04 A3005 RMK A01 T01680041  RH  043%=      5-min Rain = 0
KMC1 162217Z 17006KT 17/04 A3005 RMK A01 T01680042  RH  043%=      5-min Rain = 0
KMC1 162218Z 17004KT 17/04 A3005 RMK A01 T01680043  RH  044%=      5-min Rain = 0
KMC1 162219Z 17005KT 17/04 A3005 RMK A01 T01680044  RH  044%=      5-min Rain = 0
KMC1 162220Z 16007KT 17/04 A3005 RMK A01 T01680043  RH  043%=      5-min Rain = 0
KMC1 162221Z 17008KT 17/04 A3005 RMK A01 T01680043  RH  043%=      5-min Rain = 0
KMC1 162222Z 17007KT 17/04 A3005 RMK A01 T01680043  RH  043%=      5-min Rain = 0
KMC1 162223Z 17008KT 17/04 A3006 RMK A01 T01670043  RH  044%=      5-min Rain = 0
KMC1 162224Z 18009KT 17/04 A3006 RMK A01 T01670043  RH  044%=      5-min Rain = 0
KMC1 162225Z 18008KT 17/04 A3006 RMK A01 T01670043  RH  044%=      5-min Rain = 0
KMC1 162226Z 17007KT 17/04 A3006 RMK A01 T01660044  RH  044%=      5-min Rain = 0
KMC1 162227Z 17008KT 17/04 A3006 RMK A01 T01660044  RH  044%=      5-min Rain = 0
KMC1 162228Z 17007KT 17/04 A3006 RMK A01 T01660044  RH  044%=      5-min Rain = 0
KMC1 162229Z 17008KT 17/04 A3006 RMK A01 T01660044  RH  044%=      5-min Rain = 0
KMC1 162230Z 17007KT 17/05 A3006 RMK A01 T01660045  RH  045%=      5-min Rain = 0
KMC1 162231Z 18007KT 17/05 A3006 RMK A01 T01650045  RH  045%=      5-min Rain = 0
KMC1 162232Z 18007KT 17/05 A3006 RMK A01 T01650045  RH  045%=      5-min Rain = 0
KMC1 162233Z 19007KT 17/05 A3006 RMK A01 T01650045  RH  045%=      5-min Rain = 0
KMC1 162234Z 19009KT 16/05 A3006 RMK A01 T01640045  RH  045%=      5-min Rain = 0
KMC1 162235Z 19007KT 16/05 A3006 RMK A01 T01640045  RH  045%=      5-min Rain = 0
KMC1 162236Z 19008KT 16/05 A3006 RMK A01 T01640045  RH  045%=      5-min Rain = 0
KMC1 162237Z 18008KT 16/05 A3006 RMK A01 T01630045  RH  045%=      5-min Rain = 0
KMC1 162238Z 20009KT 16/05 A3006 RMK A01 T01630046  RH  046%=      5-min Rain = 0
KMC1 162239Z 19007KT 16/05 A3006 RMK A01 T01620046  RH  046%=      5-min Rain = 0
KMC1 162240Z 19007KT 16/05 A3006 RMK A01 T01620046  RH  046%=      5-min Rain = 0
KMC1 162241Z 19007KT 16/05 A3006 RMK A01 T01620046  RH  046%=      5-min Rain = 0
KMC1 162242Z 19007KT 16/05 A3006 RMK A01 T01610046  RH  046%=      5-min Rain = 0
KMC1 162243Z 19006KT 16/05 A3006 RMK A01 T01610046  RH  046%=      5-min Rain = 0
KMC1 162244Z 18008KT 16/05 A3006 RMK A01 T01610046  RH  046%=      5-min Rain = 0
KMC1 162245Z 19007KT 16/05 A3006 RMK A01 T01610045  RH  046%=      5-min Rain = 0
KMC1 162246Z 19007KT 16/05 A3006 RMK A01 T01600045  RH  046%=      5-min Rain = 0
KMC1 162247Z 19005KT 16/05 A3006 RMK A01 T01600045  RH  046%=      5-min Rain = 0
KMC1 162248Z 18006KT 16/05 A3006 RMK A01 T01600045  RH  046%=      5-min Rain = 0
KMC1 162249Z 20003KT 16/05 A3006 RMK A01 T01590045  RH  047%=      5-min Rain = 0
KMC1 162250Z 20004KT 16/05 A3007 RMK A01 T01590046  RH  047%=      5-min Rain = 0
KMC1 162251Z 19005KT 16/05 A3007 RMK A01 T01590046  RH  047%=      5-min Rain = 0
KMC1 162252Z 19005KT 16/05 A3007 RMK A01 T01580045  RH  047%=      5-min Rain = 0
KMC1 162253Z 20005KT 16/05 A3007 RMK A01 T01580045  RH  047%=      5-min Rain = 0
KMC1 162254Z 19004KT 16/05 A3007 RMK A01 T01580046  RH  047%=      5-min Rain = 0
KMC1 162255Z 19005KT 16/05 A3007 RMK A01 T01580046  RH  047%=      5-min Rain = 0
KMC1 162256Z 18006KT 16/04 A3007 RMK A01 T01570044  RH  047%=      5-min Rain = 0
KMC1 162257Z 18005KT 16/04 A3007 RMK A01 T01570044  RH  047%=      5-min Rain = 0
KMC1 162258Z 18004KT 16/04 A3007 RMK A01 T01570044  RH  047%=      5-min Rain = 0
KMC1 162259Z 17004KT 16/05 A3007 RMK A01 T01570045  RH  047%=      5-min Rain = 0
KMC1 162300Z 18003KT 16/04 A3007 RMK A01 T01560044  RH  047%=      5-min Rain = 0
KMC1 162301Z 18004KT 16/05 A3007 RMK A01 T01560045  RH  048%=      5-min Rain = 0
KMC1 162302Z 17005KT 16/05 A3007 RMK A01 T01550045  RH  048%=      5-min Rain = 0
KMC1 162303Z 18004KT 16/05 A3007 RMK A01 T01550045  RH  048%=      5-min Rain = 0
KMC1 162304Z 17003KT 15/05 A3007 RMK A01 T01540045  RH  048%=      5-min Rain = 0
KMC1 162305Z 17003KT 15/05 A3007 RMK A01 T01540045  RH  048%=      5-min Rain = 0
KMC1 162306Z 17004KT 15/05 A3006 RMK A01 T01530046  RH  049%=      5-min Rain = 0
KMC1 162307Z 17003KT 15/05 A3006 RMK A01 T01520045  RH  049%=      5-min Rain = 0
KMC1 162308Z 18004KT 15/05 A3006 RMK A01 T01510046  RH  049%=      5-min Rain = 0
KMC1 162309Z 17004KT 15/05 A3006 RMK A01 T01510045  RH  049%=      5-min Rain = 0
KMC1 162310Z 17004KT 15/05 A3006 RMK A01 T01510045  RH  049%=      5-min Rain = 0
KMC1 162311Z 16004KT 15/05 A3006 RMK A01 T01500045  RH  049%=      5-min Rain = 0
KMC1 162312Z 18006KT 15/05 A3006 RMK A01 T01510045  RH  049%=      5-min Rain = 0
KMC1 162313Z 17004KT 15/05 A3006 RMK A01 T01500045  RH  049%=      5-min Rain = 0
KMC1 162314Z 17005KT 15/05 A3006 RMK A01 T01500045  RH  049%=      5-min Rain = 0
KMC1 162315Z 17005KT 15/05 A3006 RMK A01 T01500045  RH  049%=      5-min Rain = 0
KMC1 162316Z 17004KT 15/05 A3006 RMK A01 T01500045  RH  049%=      5-min Rain = 0
KMC1 162317Z 17004KT 15/05 A3006 RMK A01 T01500045  RH  049%=      5-min Rain = 0
KMC1 162318Z 17005KT 15/05 A3006 RMK A01 T01490045  RH  050%=      5-min Rain = 0
KMC1 162319Z 17006KT 15/05 A3006 RMK A01 T01490045  RH  050%=      5-min Rain = 0
KMC1 162320Z 17004KT 15/05 A3006 RMK A01 T01490045  RH  050%=      5-min Rain = 0
KMC1 162321Z 17005KT 15/05 A3006 RMK A01 T01480045  RH  050%=      5-min Rain = 0
KMC1 162322Z 17004KT 15/05 A3006 RMK A01 T01480045  RH  050%=      5-min Rain = 0
KMC1 162323Z 18005KT 15/05 A3006 RMK A01 T01470045  RH  050%=      5-min Rain = 0
KMC1 162324Z 17005KT 15/05 A3006 RMK A01 T01470045  RH  050%=      5-min Rain = 0
KMC1 162325Z 17007KT 15/05 A3006 RMK A01 T01470045  RH  050%=      5-min Rain = 0
KMC1 162326Z 17006KT 15/05 A3006 RMK A01 T01470045  RH  050%=      5-min Rain = 0
KMC1 162327Z 17006KT 15/05 A3006 RMK A01 T01470045  RH  050%=      5-min Rain = 0
KMC1 162328Z 17006KT 15/05 A3006 RMK A01 T01460045  RH  051%=      5-min Rain = 0
KMC1 162329Z 17007KT 15/05 A3006 RMK A01 T01460045  RH  051%=      5-min Rain = 0
KMC1 162330Z 17005KT 15/05 A3006 RMK A01 T01460045  RH  051%=      5-min Rain = 0
KMC1 162331Z 17006KT 15/05 A3006 RMK A01 T01450045  RH  051%=      5-min Rain = 0
KMC1 162332Z 17006KT 15/05 A3006 RMK A01 T01450045  RH  051%=      5-min Rain = 0
KMC1 162333Z 17005KT 15/05 A3006 RMK A01 T01450045  RH  051%=      5-min Rain = 0
KMC1 162334Z 17004KT 15/05 A3007 RMK A01 T01450045  RH  051%=      5-min Rain = 0
KMC1 162335Z 18004KT 14/05 A3007 RMK A01 T01440045  RH  051%=      5-min Rain = 0
KMC1 162336Z 18004KT 14/05 A3007 RMK A01 T01440045  RH  051%=      5-min Rain = 0
KMC1 162337Z 18004KT 14/05 A3007 RMK A01 T01430045  RH  052%=      5-min Rain = 0
KMC1 162338Z 18004KT 14/05 A3007 RMK A01 T01420045  RH  052%=      5-min Rain = 0
KMC1 162339Z 18004KT 14/04 A3007 RMK A01 T01420044  RH  052%=      5-min Rain = 0
KMC1 162340Z 17004KT 14/05 A3007 RMK A01 T01420045  RH  052%=      5-min Rain = 0
KMC1 162341Z 18004KT 14/04 A3007 RMK A01 T01410044  RH  052%=      5-min Rain = 0
KMC1 162342Z 17004KT 14/05 A3007 RMK A01 T01400045  RH  052%=      5-min Rain = 0
KMC1 162343Z 17004KT 14/05 A3007 RMK A01 T01400045  RH  053%=      5-min Rain = 0
KMC1 162344Z 17004KT 14/04 A3007 RMK A01 T01390044  RH  053%=      5-min Rain = 0
KMC1 162345Z 17004KT 14/04 A3007 RMK A01 T01390044  RH  053%=      5-min Rain = 0
KMC1 162346Z 17003KT 14/04 A3006 RMK A01 T01390044  RH  053%=      5-min Rain = 0
KMC1 162347Z 16004KT 14/04 A3006 RMK A01 T01380044  RH  053%=      5-min Rain = 0
KMC1 162348Z 16004KT 14/04 A3006 RMK A01 T01370044  RH  053%=      5-min Rain = 0
KMC1 162349Z 16003KT 14/04 A3006 RMK A01 T01370044  RH  054%=      5-min Rain = 0
KMC1 162350Z 16004KT 14/04 A3006 RMK A01 T01360044  RH  054%=      5-min Rain = 0
KMC1 162351Z 15003KT 14/04 A3006 RMK A01 T01350044  RH  054%=      5-min Rain = 0
KMC1 162352Z 16002KT 13/04 A3006 RMK A01 T01340044  RH  054%=      5-min Rain = 0
KMC1 162353Z 16004KT 13/04 A3006 RMK A01 T01330044  RH  055%=      5-min Rain = 0
KMC1 162354Z 16003KT 13/04 A3006 RMK A01 T01330044  RH  055%=      5-min Rain = 0
KMC1 162355Z 16004KT 13/04 A3006 RMK A01 T01320044  RH  055%=      5-min Rain = 0
KMC1 162356Z 16004KT 13/04 A3006 RMK A01 T01310044  RH  055%=      5-min Rain = 0
KMC1 162357Z 16004KT 13/04 A3006 RMK A01 T01300043  RH  056%=      5-min Rain = 0
KMC1 162358Z 17004KT 13/04 A3006 RMK A01 T01300044  RH  056%=      5-min Rain = 0
KMC1 162359Z 16004KT 13/04 A3006 RMK A01 T01300043  RH  056%=      5-min Rain = 0
KMC1 170000Z 16004KT 13/04 A3006 RMK A01 T01290044  RH  056%=      5-min Rain = 0
KMC1 170001Z 16003KT 13/04 A3006 RMK A01 T01290043  RH  056%=      5-min Rain = 0
KMC1 170002Z 15003KT 13/04 A3006 RMK A01 T01280044  RH  056%=      5-min Rain = 0
KMC1 170003Z 15003KT 13/04 A3006 RMK A01 T01280044  RH  057%=      5-min Rain = 0
KMC1 170004Z 15003KT 13/04 A3006 RMK A01 T01270044  RH  057%=      5-min Rain = 0
KMC1 170005Z 15003KT 13/04 A3006 RMK A01 T01270044  RH  057%=      5-min Rain = 0
KMC1 170006Z 15003KT 13/04 A3006 RMK A01 T01270044  RH  057%=      5-min Rain = 0
KMC1 170007Z 15003KT 13/04 A3007 RMK A01 T01260044  RH  057%=      5-min Rain = 0
KMC1 170008Z 15003KT 13/04 A3007 RMK A01 T01260044  RH  057%=      5-min Rain = 0
KMC1 170009Z 16003KT 13/04 A3007 RMK A01 T01250043  RH  057%=      5-min Rain = 0
KMC1 170010Z 16003KT 13/04 A3007 RMK A01 T01250043  RH  058%=      5-min Rain = 0
KMC1 170011Z 15003KT 12/04 A3007 RMK A01 T01240043  RH  058%=      5-min Rain = 0
KMC1 170012Z 16003KT 12/04 A3007 RMK A01 T01240043  RH  058%=      5-min Rain = 0
KMC1 170013Z 16003KT 12/04 A3007 RMK A01 T01230043  RH  058%=      5-min Rain = 0
KMC1 170014Z 16004KT 12/04 A3007 RMK A01 T01230043  RH  058%=      5-min Rain = 0
KMC1 170015Z 15004KT 12/04 A3007 RMK A01 T01220043  RH  058%=      5-min Rain = 0
KMC1 170016Z 15004KT 12/04 A3007 RMK A01 T01220043  RH  059%=      5-min Rain = 0
KMC1 170017Z 16003KT 12/04 A3007 RMK A01 T01210043  RH  059%=      5-min Rain = 0
KMC1 170018Z 15003KT 12/04 A3007 RMK A01 T01210043  RH  059%=      5-min Rain = 0
KMC1 170019Z 15004KT 12/04 A3006 RMK A01 T01210043  RH  059%=      5-min Rain = 0
KMC1 170020Z 16003KT 12/04 A3006 RMK A01 T01200043  RH  059%=      5-min Rain = 0
KMC1 170021Z 15003KT 12/04 A3006 RMK A01 T01200043  RH  059%=      5-min Rain = 0
KMC1 170022Z 16003KT 12/04 A3006 RMK A01 T01200043  RH  059%=      5-min Rain = 0
KMC1 170023Z 16003KT 12/04 A3006 RMK A01 T01200043  RH  059%=      5-min Rain = 0
KMC1 170024Z 16003KT 12/04 A3006 RMK A01 T01190043  RH  059%=      5-min Rain = 0
KMC1 170025Z 16004KT 12/04 A3007 RMK A01 T01190043  RH  059%=      5-min Rain = 0
KMC1 170026Z 16003KT 12/04 A3007 RMK A01 T01190042  RH  059%=      5-min Rain = 0
KMC1 170027Z 16004KT 12/04 A3007 RMK A01 T01190042  RH  059%=      5-min Rain = 0
KMC1 170028Z 17004KT 12/04 A3007 RMK A01 T01180042  RH  060%=      5-min Rain = 0
KMC1 170029Z 17003KT 12/04 A3007 RMK A01 T01180043  RH  060%=      5-min Rain = 0
KMC1 170030Z 17003KT 12/04 A3007 RMK A01 T01180043  RH  060%=      5-min Rain = 0
KMC1 170031Z 17003KT 12/04 A3007 RMK A01 T01180043  RH  060%=      5-min Rain = 0
KMC1 170032Z 17004KT 12/04 A3007 RMK A01 T01170042  RH  060%=      5-min Rain = 0
KMC1 170033Z 17004KT 12/04 A3007 RMK A01 T01160042  RH  060%=      5-min Rain = 0
KMC1 170034Z 16004KT 12/04 A3007 RMK A01 T01160042  RH  060%=      5-min Rain = 0
KMC1 170035Z 16005KT 12/04 A3006 RMK A01 T01160042  RH  061%=      5-min Rain = 0
KMC1 170036Z 16004KT 12/04 A3006 RMK A01 T01160042  RH  061%=      5-min Rain = 0
KMC1 170037Z 16004KT 12/04 A3007 RMK A01 T01160043  RH  061%=      5-min Rain = 0
KMC1 170038Z 15004KT 12/04 A3007 RMK A01 T01160043  RH  061%=      5-min Rain = 0
KMC1 170039Z 16004KT 12/04 A3007 RMK A01 T01150042  RH  061%=      5-min Rain = 0
KMC1 170040Z 16004KT 11/04 A3007 RMK A01 T01140042  RH  061%=      5-min Rain = 0
KMC1 170041Z 17004KT 11/04 A3007 RMK A01 T01140042  RH  061%=      5-min Rain = 0
KMC1 170042Z 17003KT 11/04 A3007 RMK A01 T01140042  RH  061%=      5-min Rain = 0
KMC1 170043Z 16003KT 11/04 A3007 RMK A01 T01130042  RH  062%=      5-min Rain = 0
KMC1 170044Z 17004KT 11/04 A3007 RMK A01 T01120042  RH  062%=      5-min Rain = 0
KMC1 170045Z 16004KT 11/04 A3007 RMK A01 T01120042  RH  062%=      5-min Rain = 0
KMC1 170046Z 17003KT 11/04 A3007 RMK A01 T01120042  RH  062%=      5-min Rain = 0
KMC1 170047Z 17004KT 11/04 A3007 RMK A01 T01110042  RH  062%=      5-min Rain = 0
KMC1 170048Z 16004KT 11/04 A3007 RMK A01 T01110042  RH  063%=      5-min Rain = 0
KMC1 170049Z 16004KT 11/04 A3007 RMK A01 T01100041  RH  063%=      5-min Rain = 0
KMC1 170050Z 16004KT 11/04 A3007 RMK A01 T01100042  RH  063%=      5-min Rain = 0
KMC1 170051Z 16004KT 11/04 A3007 RMK A01 T01090042  RH  063%=      5-min Rain = 0
KMC1 170052Z 15003KT 11/04 A3007 RMK A01 T01090042  RH  063%=      5-min Rain = 0
KMC1 170053Z 15004KT 11/04 A3006 RMK A01 T01080042  RH  063%=      5-min Rain = 0
KMC1 170054Z 15004KT 11/04 A3006 RMK A01 T01080041  RH  064%=      5-min Rain = 0
KMC1 170055Z 15004KT 11/04 A3006 RMK A01 T01070041  RH  064%=      5-min Rain = 0
KMC1 170056Z 15004KT 11/04 A3006 RMK A01 T01070042  RH  064%=      5-min Rain = 0
KMC1 170057Z 15004KT 11/04 A3006 RMK A01 T01060042  RH  064%=      5-min Rain = 0
KMC1 170058Z 14005KT 11/04 A3006 RMK A01 T01060042  RH  064%=      5-min Rain = 0
KMC1 170059Z 14006KT 11/04 A3006 RMK A01 T01060042  RH  064%=      5-min Rain = 0
KMC1 170100Z 15005KT 11/04 A3006 RMK A01 T01070042  RH  064%=      5-min Rain = 0
KMC1 170101Z 14005KT 11/04 A3006 RMK A01 T01070042  RH  064%=      5-min Rain = 0
KMC1 170102Z 15005KT 11/04 A3006 RMK A01 T01070042  RH  064%=      5-min Rain = 0
KMC1 170103Z 15005KT 11/04 A3006 RMK A01 T01070043  RH  064%=      5-min Rain = 0
KMC1 170104Z 15006KT 11/04 A3006 RMK A01 T01070043  RH  064%=      5-min Rain = 0
KMC1 170105Z 15005KT 11/04 A3006 RMK A01 T01080043  RH  064%=      5-min Rain = 0
KMC1 170106Z 15005KT 11/04 A3006 RMK A01 T01090043  RH  064%=      5-min Rain = 0
KMC1 170107Z 15005KT 11/04 A3006 RMK A01 T01100044  RH  063%=      5-min Rain = 0
KMC1 170108Z 15005KT 11/04 A3006 RMK A01 T01110044  RH  063%=      5-min Rain = 0
KMC1 170109Z 16005KT 11/04 A3006 RMK A01 T01110044  RH  063%=      5-min Rain = 0
KMC1 170110Z 15005KT 11/04 A3006 RMK A01 T01120043  RH  063%=      5-min Rain = 0
KMC1 170111Z 15006KT 11/04 A3006 RMK A01 T01120043  RH  063%=      5-min Rain = 0
KMC1 170112Z 16005KT 11/04 A3006 RMK A01 T01130044  RH  062%=      5-min Rain = 0
KMC1 170113Z 15006KT 11/04 A3006 RMK A01 T01130044  RH  062%=      5-min Rain = 0
KMC1 170114Z 15005KT 11/04 A3006 RMK A01 T01140043  RH  062%=      5-min Rain = 0
KMC1 170115Z 15004KT 11/04 A3006 RMK A01 T01140043  RH  062%=      5-min Rain = 0
KMC1 170116Z 16007KT 11/04 A3006 RMK A01 T01140043  RH  062%=      5-min Rain = 0
KMC1 170117Z 15005KT 11/04 A3006 RMK A01 T01140043  RH  062%=      5-min Rain = 0
KMC1 170118Z 15005KT 11/04 A3006 RMK A01 T01140044  RH  062%=      5-min Rain = 0
KMC1 170119Z 15006KT 11/04 A3006 RMK A01 T01140043  RH  062%=      5-min Rain = 0
KMC1 170120Z 16005KT 11/04 A3007 RMK A01 T01140043  RH  061%=      5-min Rain = 0
KMC1 170121Z 15004KT 11/04 A3007 RMK A01 T01140043  RH  061%=      5-min Rain = 0
KMC1 170122Z 16003KT 11/04 A3007 RMK A01 T01140043  RH  061%=      5-min Rain = 0
KMC1 170123Z 16005KT 11/04 A3007 RMK A01 T01140043  RH  062%=      5-min Rain = 0
KMC1 170124Z 17005KT 11/04 A3007 RMK A01 T01140043  RH  062%=      5-min Rain = 0
KMC1 170125Z 17004KT 11/04 A3007 RMK A01 T01140043  RH  062%=      5-min Rain = 0
KMC1 170126Z 17005KT 11/04 A3007 RMK A01 T01140043  RH  062%=      5-min Rain = 0
KMC1 170127Z 17004KT 11/04 A3007 RMK A01 T01130043  RH  062%=      5-min Rain = 0
KMC1 170128Z 17005KT 11/04 A3008 RMK A01 T01130043  RH  062%=      5-min Rain = 0
KMC1 170129Z 16005KT 11/04 A3007 RMK A01 T01120043  RH  062%=      5-min Rain = 0
KMC1 170130Z 16005KT 11/04 A3007 RMK A01 T01120043  RH  062%=      5-min Rain = 0
KMC1 170131Z 17004KT 11/04 A3008 RMK A01 T01120043  RH  062%=      5-min Rain = 0
KMC1 170132Z 16004KT 11/04 A3008 RMK A01 T01110042  RH  063%=      5-min Rain = 0
KMC1 170133Z 17004KT 11/04 A3008 RMK A01 T01100042  RH  063%=      5-min Rain = 0
KMC1 170134Z 17004KT 11/04 A3008 RMK A01 T01100042  RH  063%=      5-min Rain = 0
KMC1 170135Z 17005KT 11/04 A3008 RMK A01 T01090042  RH  063%=      5-min Rain = 0
KMC1 170136Z 17004KT 11/04 A3008 RMK A01 T01090042  RH  063%=      5-min Rain = 0
KMC1 170137Z 17004KT 11/04 A3008 RMK A01 T01080042  RH  064%=      5-min Rain = 0
KMC1 170138Z 17003KT 11/04 A3008 RMK A01 T01090042  RH  064%=      5-min Rain = 0
KMC1 170139Z 18004KT 11/04 A3008 RMK A01 T01080042  RH  064%=      5-min Rain = 0
KMC1 170140Z 17004KT 11/04 A3008 RMK A01 T01080042  RH  064%=      5-min Rain = 0
KMC1 170141Z 17004KT 11/04 A3008 RMK A01 T01080042  RH  064%=      5-min Rain = 0
KMC1 170142Z 16005KT 11/04 A3008 RMK A01 T01080042  RH  064%=      5-min Rain = 0
KMC1 170143Z 16003KT 11/04 A3008 RMK A01 T01080042  RH  064%=      5-min Rain = 0
KMC1 170144Z 16004KT 11/04 A3008 RMK A01 T01080042  RH  063%=      5-min Rain = 0
KMC1 170145Z 18003KT 11/04 A3008 RMK A01 T01080041  RH  063%=      5-min Rain = 0
KMC1 170146Z 18004KT 11/04 A3007 RMK A01 T01080042  RH  063%=      5-min Rain = 0
KMC1 170147Z 17003KT 11/04 A3007 RMK A01 T01080042  RH  063%=      5-min Rain = 0
KMC1 170148Z 17004KT 11/04 A3007 RMK A01 T01090042  RH  063%=      5-min Rain = 0
KMC1 170149Z 17005KT 11/04 A3007 RMK A01 T01090042  RH  063%=      5-min Rain = 0
KMC1 170150Z 17004KT 11/04 A3007 RMK A01 T01090042  RH  063%=      5-min Rain = 0
KMC1 170151Z 17005KT 11/04 A3007 RMK A01 T01090041  RH  063%=      5-min Rain = 0
KMC1 170152Z 16004KT 11/04 A3007 RMK A01 T01090042  RH  063%=      5-min Rain = 0
KMC1 170153Z 16006KT 11/04 A3007 RMK A01 T01090041  RH  063%=      5-min Rain = 0
KMC1 170154Z 16004KT 11/04 A3007 RMK A01 T01090041  RH  063%=      5-min Rain = 0
KMC1 170155Z 16005KT 11/04 A3007 RMK A01 T01090041  RH  063%=      5-min Rain = 0
KMC1 170156Z 16004KT 11/04 A3008 RMK A01 T01090041  RH  063%=      5-min Rain = 0
KMC1 170157Z 17005KT 11/04 A3008 RMK A01 T01090041  RH  063%=      5-min Rain = 0
KMC1 170158Z 17005KT 11/04 A3007 RMK A01 T01090041  RH  063%=      5-min Rain = 0
KMC1 170159Z 16005KT 11/04 A3007 RMK A01 T01080041  RH  063%=      5-min Rain = 0
KMC1 170200Z 17005KT 11/04 A3007 RMK A01 T01080041  RH  063%=      5-min Rain = 0
KMC1 170201Z 16005KT 11/04 A3008 RMK A01 T01080041  RH  063%=      5-min Rain = 0
KMC1 170202Z 17005KT 11/04 A3008 RMK A01 T01080041  RH  063%=      5-min Rain = 0
KMC1 170203Z 18004KT 11/04 A3008 RMK A01 T01080041  RH  063%=      5-min Rain = 0
KMC1 170204Z 18003KT 11/04 A3008 RMK A01 T01090041  RH  063%=      5-min Rain = 0
KMC1 170205Z 18002KT 11/04 A3008 RMK A01 T01090041  RH  063%=      5-min Rain = 0
KMC1 170206Z 18004KT 11/04 A3008 RMK A01 T01090041  RH  063%=      5-min Rain = 0
KMC1 170207Z 17002KT 11/04 A3008 RMK A01 T01080041  RH  063%=      5-min Rain = 0
KMC1 170208Z 19003KT 11/04 A3008 RMK A01 T01070040  RH  063%=      5-min Rain = 0
KMC1 170209Z 18004KT 11/04 A3008 RMK A01 T01070041  RH  063%=      5-min Rain = 0
KMC1 170210Z 18003KT 11/04 A3007 RMK A01 T01070040  RH  063%=      5-min Rain = 0
KMC1 170211Z 17003KT 11/04 A3007 RMK A01 T01060040  RH  064%=      5-min Rain = 0
KMC1 170212Z 17003KT 11/04 A3007 RMK A01 T01060040  RH  064%=      5-min Rain = 0
KMC1 170213Z 17003KT 11/04 A3007 RMK A01 T01060040  RH  064%=      5-min Rain = 0
KMC1 170214Z 18004KT 11/04 A3007 RMK A01 T01060040  RH  064%=      5-min Rain = 0
KMC1 170215Z 17002KT 11/04 A3007 RMK A01 T01060040  RH  064%=      5-min Rain = 0
KMC1 170216Z 18003KT 11/04 A3007 RMK A01 T01050040  RH  064%=      5-min Rain = 0
KMC1 170217Z 18004KT 11/04 A3007 RMK A01 T01050040  RH  064%=      5-min Rain = 0
KMC1 170218Z 18003KT 11/04 A3007 RMK A01 T01050039  RH  064%=      5-min Rain = 0
KMC1 170219Z 18003KT 11/04 A3007 RMK A01 T01050039  RH  064%=      5-min Rain = 0
KMC1 170220Z 20003KT 11/04 A3007 RMK A01 T01050040  RH  064%=      5-min Rain = 0
KMC1 170221Z 19002KT 11/04 A3007 RMK A01 T01050040  RH  064%=      5-min Rain = 0
KMC1 170222Z 19003KT 11/04 A3007 RMK A01 T01050039  RH  064%=      5-min Rain = 0
KMC1 170223Z 19003KT 11/04 A3007 RMK A01 T01050039  RH  064%=      5-min Rain = 0
KMC1 170224Z 19004KT 10/04 A3007 RMK A01 T01040039  RH  064%=      5-min Rain = 0
KMC1 170225Z 20004KT 10/04 A3007 RMK A01 T01040039  RH  064%=      5-min Rain = 0
KMC1 170226Z 21003KT 10/04 A3007 RMK A01 T01040039  RH  064%=      5-min Rain = 0
KMC1 170227Z 20003KT 10/04 A3008 RMK A01 T01040039  RH  064%=      5-min Rain = 0
KMC1 170228Z 20003KT 10/04 A3008 RMK A01 T01040039  RH  064%=      5-min Rain = 0
KMC1 170229Z 20003KT 10/04 A3008 RMK A01 T01040039  RH  064%=      5-min Rain = 0
KMC1 170230Z 20004KT 10/04 A3008 RMK A01 T01040039  RH  064%=      5-min Rain = 0
KMC1 170231Z 19002KT 10/04 A3008 RMK A01 T01040039  RH  064%=      5-min Rain = 0
KMC1 170232Z 19002KT 10/04 A3008 RMK A01 T01040039  RH  064%=      5-min Rain = 0
KMC1 170233Z 20003KT 10/04 A3008 RMK A01 T01040039  RH  064%=      5-min Rain = 0
KMC1 170234Z 18002KT 10/04 A3008 RMK A01 T01040039  RH  064%=      5-min Rain = 0
KMC1 170235Z 19003KT 10/04 A3008 RMK A01 T01030038  RH  064%=      5-min Rain = 0
KMC1 170236Z 19002KT 10/04 A3008 RMK A01 T01030038  RH  064%=      5-min Rain = 0
KMC1 170237Z 18002KT 10/04 A3008 RMK A01 T01030038  RH  064%=      5-min Rain = 0
KMC1 170238Z 18003KT 10/04 A3008 RMK A01 T01030038  RH  064%=      5-min Rain = 0
KMC1 170239Z 17003KT 10/04 A3008 RMK A01 T01030038  RH  064%=      5-min Rain = 0
KMC1 170240Z 18003KT 10/04 A3008 RMK A01 T01040038  RH  064%=      5-min Rain = 0
KMC1 170241Z 17004KT 10/04 A3007 RMK A01 T01040039  RH  064%=      5-min Rain = 0
KMC1 170242Z 17004KT 10/04 A3007 RMK A01 T01040038  RH  064%=      5-min Rain = 0
KMC1 170243Z 16004KT 10/04 A3007 RMK A01 T01040039  RH  064%=      5-min Rain = 0
KMC1 170244Z 17004KT 10/04 A3007 RMK A01 T01040038  RH  064%=      5-min Rain = 0
KMC1 170245Z 18003KT 10/04 A3007 RMK A01 T01040038  RH  064%=      5-min Rain = 0
KMC1 170246Z 18003KT 10/04 A3007 RMK A01 T01030038  RH  064%=      5-min Rain = 0
KMC1 170247Z 19003KT 10/04 A3007 RMK A01 T01030039  RH  064%=      5-min Rain = 0
KMC1 170248Z 18003KT 10/04 A3007 RMK A01 T01030039  RH  064%=      5-min Rain = 0
KMC1 170249Z 19004KT 10/04 A3007 RMK A01 T01030038  RH  064%=      5-min Rain = 0
KMC1 170250Z 19004KT 10/04 A3007 RMK A01 T01030038  RH  064%=      5-min Rain = 0
KMC1 170251Z 19002KT 10/04 A3007 RMK A01 T01030038  RH  064%=      5-min Rain = 0
KMC1 170252Z 19003KT 10/04 A3007 RMK A01 T01030038  RH  064%=      5-min Rain = 0
KMC1 170253Z 19003KT 10/04 A3007 RMK A01 T01030039  RH  064%=      5-min Rain = 0
KMC1 170254Z 19004KT 10/04 A3007 RMK A01 T01040038  RH  064%=      5-min Rain = 0
KMC1 170255Z 18004KT 10/04 A3007 RMK A01 T01040038  RH  064%=      5-min Rain = 0
KMC1 170256Z 18004KT 10/04 A3007 RMK A01 T01040038  RH  064%=      5-min Rain = 0
KMC1 170257Z 18004KT 10/04 A3007 RMK A01 T01040039  RH  064%=      5-min Rain = 0
KMC1 170258Z 18004KT 10/04 A3007 RMK A01 T01030039  RH  064%=      5-min Rain = 0
KMC1 170259Z 20004KT 10/04 A3008 RMK A01 T01030039  RH  064%=      5-min Rain = 0
KMC1 170300Z 20005KT 10/04 A3008 RMK A01 T01040039  RH  064%=      5-min Rain = 0
KMC1 170301Z 20004KT 10/04 A3008 RMK A01 T01040039  RH  064%=      5-min Rain = 0
KMC1 170302Z 21003KT 10/04 A3008 RMK A01 T01040039  RH  064%=      5-min Rain = 0
KMC1 170303Z 18002KT 10/04 A3008 RMK A01 T01040039  RH  064%=      5-min Rain = 0
KMC1 170304Z 18002KT 10/04 A3008 RMK A01 T01040039  RH  064%=      5-min Rain = 0
KMC1 170305Z 19004KT 10/04 A3008 RMK A01 T01030039  RH  064%=      5-min Rain = 0
KMC1 170306Z 18004KT 10/04 A3008 RMK A01 T01030039  RH  064%=      5-min Rain = 0
KMC1 170307Z 18005KT 10/04 A3008 RMK A01 T01040039  RH  064%=      5-min Rain = 0
KMC1 170308Z 18003KT 11/04 A3008 RMK A01 T01050039  RH  064%=      5-min Rain = 0
KMC1 170309Z 19005KT 11/04 A3008 RMK A01 T01050039  RH  064%=      5-min Rain = 0
KMC1 170310Z 18004KT 11/04 A3008 RMK A01 T01050039  RH  064%=      5-min Rain = 0
KMC1 170311Z 18004KT 11/04 A3008 RMK A01 T01050039  RH  064%=      5-min Rain = 0
KMC1 170312Z 19003KT 11/04 A3008 RMK A01 T01050039  RH  064%=      5-min Rain = 0
KMC1 170313Z 19005KT 11/04 A3007 RMK A01 T01050039  RH  064%=      5-min Rain = 0
KMC1 170314Z 18004KT 11/04 A3007 RMK A01 T01050039  RH  064%=      5-min Rain = 0
KMC1 170315Z 18004KT 11/04 A3007 RMK A01 T01060039  RH  064%=      5-min Rain = 0
KMC1 170316Z 17005KT 11/04 A3007 RMK A01 T01060040  RH  064%=      5-min Rain = 0
KMC1 170317Z 18005KT 11/04 A3007 RMK A01 T01060039  RH  064%=      5-min Rain = 0
KMC1 170318Z 18003KT 11/04 A3007 RMK A01 T01060040  RH  064%=      5-min Rain = 0
KMC1 170319Z 19002KT 11/04 A3007 RMK A01 T01060040  RH  064%=      5-min Rain = 0
KMC1 170320Z 19002KT 11/04 A3007 RMK A01 T01050039  RH  064%=      5-min Rain = 0
KMC1 170321Z 18004KT 11/04 A3007 RMK A01 T01050039  RH  064%=      5-min Rain = 0
KMC1 170322Z 18003KT 11/04 A3007 RMK A01 T01050039  RH  064%=      5-min Rain = 0
KMC1 170323Z 19005KT 11/04 A3007 RMK A01 T01050040  RH  064%=      5-min Rain = 0
KMC1 170324Z 18006KT 10/04 A3007 RMK A01 T01040039  RH  064%=      5-min Rain = 0
KMC1 170325Z 18005KT 11/04 A3007 RMK A01 T01050040  RH  064%=      5-min Rain = 0
KMC1 170326Z 18005KT 11/04 A3007 RMK A01 T01050040  RH  064%=      5-min Rain = 0
KMC1 170327Z 18005KT 11/04 A3007 RMK A01 T01050040  RH  064%=      5-min Rain = 0
KMC1 170328Z 18005KT 11/04 A3007 RMK A01 T01050040  RH  064%=      5-min Rain = 0
KMC1 170329Z 18005KT 11/04 A3007 RMK A01 T01050040  RH  064%=      5-min Rain = 0
KMC1 170330Z 18006KT 11/04 A3007 RMK A01 T01050040  RH  064%=      5-min Rain = 0
KMC1 170331Z 18004KT 11/04 A3007 RMK A01 T01050040  RH  064%=      5-min Rain = 0
KMC1 170332Z 18004KT 11/04 A3007 RMK A01 T01050040  RH  064%=      5-min Rain = 0
KMC1 170333Z 18005KT 11/04 A3007 RMK A01 T01050040  RH  064%=      5-min Rain = 0
KMC1 170334Z 19005KT 11/04 A3007 RMK A01 T01050040  RH  064%=      5-min Rain = 0
KMC1 170335Z 18005KT 11/04 A3007 RMK A01 T01050040  RH  064%=      5-min Rain = 0
KMC1 170336Z 18004KT 11/04 A3007 RMK A01 T01060040  RH  064%=      5-min Rain = 0
KMC1 170337Z 18004KT 11/04 A3007 RMK A01 T01060040  RH  064%=      5-min Rain = 0
KMC1 170338Z 18004KT 11/04 A3007 RMK A01 T01050040  RH  064%=      5-min Rain = 0
KMC1 170339Z 18004KT 11/04 A3007 RMK A01 T01050040  RH  064%=      5-min Rain = 0
KMC1 170340Z 18004KT 10/04 A3007 RMK A01 T01040040  RH  064%=      5-min Rain = 0
KMC1 170341Z 18004KT 10/04 A3007 RMK A01 T01040039  RH  064%=      5-min Rain = 0
KMC1 170342Z 18004KT 10/04 A3007 RMK A01 T01040040  RH  064%=      5-min Rain = 0
KMC1 170343Z 18005KT 10/04 A3007 RMK A01 T01040039  RH  064%=      5-min Rain = 0
KMC1 170344Z 18006KT 10/04 A3007 RMK A01 T01040040  RH  064%=      5-min Rain = 0
KMC1 170345Z 18006KT 10/04 A3006 RMK A01 T01040040  RH  064%=      5-min Rain = 0
KMC1 170346Z 19006KT 10/04 A3006 RMK A01 T01040040  RH  065%=      5-min Rain = 0
KMC1 170347Z 18006KT 10/04 A3006 RMK A01 T01040040  RH  064%=      5-min Rain = 0
KMC1 170348Z 18005KT 10/04 A3006 RMK A01 T01040040  RH  064%=      5-min Rain = 0
KMC1 170349Z 17004KT 10/04 A3006 RMK A01 T01040040  RH  064%=      5-min Rain = 0
KMC1 170350Z 18004KT 10/04 A3006 RMK A01 T01040040  RH  064%=      5-min Rain = 0
KMC1 170351Z 17004KT 10/04 A3006 RMK A01 T01040040  RH  064%=      5-min Rain = 0
KMC1 170352Z 17005KT 10/04 A3006 RMK A01 T01040039  RH  064%=      5-min Rain = 0
KMC1 170353Z 18004KT 10/04 A3006 RMK A01 T01030039  RH  064%=      5-min Rain = 0
KMC1 170354Z 18004KT 10/04 A3006 RMK A01 T01030039  RH  065%=      5-min Rain = 0
KMC1 170355Z 18005KT 10/04 A3006 RMK A01 T01030039  RH  065%=      5-min Rain = 0
KMC1 170356Z 17005KT 10/04 A3006 RMK A01 T01030039  RH  065%=      5-min Rain = 0
KMC1 170357Z 18005KT 10/04 A3006 RMK A01 T01030039  RH  065%=      5-min Rain = 0
KMC1 170358Z 18005KT 10/04 A3006 RMK A01 T01030040  RH  065%=      5-min Rain = 0
KMC1 170359Z 18007KT 10/04 A3006 RMK A01 T01030039  RH  064%=      5-min Rain = 0
KMC1 170400Z 18005KT 10/04 A3006 RMK A01 T01030039  RH  064%=      5-min Rain = 0
KMC1 170401Z 17008KT 10/04 A3006 RMK A01 T01030039  RH  064%=      5-min Rain = 0
KMC1 170402Z 18006KT 10/04 A3006 RMK A01 T01040039  RH  064%=      5-min Rain = 0
KMC1 170403Z 17005KT 10/04 A3006 RMK A01 T01040039  RH  064%=      5-min Rain = 0
KMC1 170404Z 17008KT 10/04 A3006 RMK A01 T01040039  RH  064%=      5-min Rain = 0
KMC1 170405Z 17006KT 10/04 A3006 RMK A01 T01040039  RH  064%=      5-min Rain = 0
KMC1 170406Z 16007KT 10/04 A3006 RMK A01 T01040039  RH  064%=      5-min Rain = 0
KMC1 170407Z 17007KT 10/04 A3005 RMK A01 T01040039  RH  064%=      5-min Rain = 0
KMC1 170408Z 16006KT 10/04 A3005 RMK A01 T01040039  RH  064%=      5-min Rain = 0
KMC1 170409Z 18006KT 10/04 A3005 RMK A01 T01030038  RH  064%=      5-min Rain = 0
KMC1 170410Z 18005KT 10/04 A3006 RMK A01 T01030038  RH  064%=      5-min Rain = 0
KMC1 170411Z 18005KT 10/04 A3006 RMK A01 T01030038  RH  064%=      5-min Rain = 0
KMC1 170412Z 18008KT 10/04 A3006 RMK A01 T01030038  RH  064%=      5-min Rain = 0
KMC1 170413Z 17006KT 10/04 A3006 RMK A01 T01030038  RH  064%=      5-min Rain = 0
KMC1 170414Z 17007KT 10/04 A3006 RMK A01 T01030038  RH  064%=      5-min Rain = 0
KMC1 170415Z 17007KT 10/04 A3006 RMK A01 T01030038  RH  064%=      5-min Rain = 0
KMC1 170416Z 17007KT 10/04 A3006 RMK A01 T01030038  RH  064%=      5-min Rain = 0
KMC1 170417Z 17008KT 10/04 A3006 RMK A01 T01030038  RH  064%=      5-min Rain = 0
KMC1 170418Z 17007KT 10/04 A3005 RMK A01 T01030038  RH  064%=      5-min Rain = 0
KMC1 170419Z 17007KT 10/04 A3005 RMK A01 T01030038  RH  064%=      5-min Rain = 0
KMC1 170420Z 17007KT 10/04 A3005 RMK A01 T01020038  RH  064%=      5-min Rain = 0
KMC1 170421Z 17005KT 10/04 A3005 RMK A01 T01020038  RH  064%=      5-min Rain = 0
KMC1 170422Z 17006KT 10/04 A3005 RMK A01 T01010038  RH  065%=      5-min Rain = 0
KMC1 170423Z 17007KT 10/04 A3005 RMK A01 T01010038  RH  065%=      5-min Rain = 0
KMC1 170424Z 18007KT 10/04 A3005 RMK A01 T01010038  RH  065%=      5-min Rain = 0
KMC1 170425Z 17006KT 10/04 A3005 RMK A01 T01010038  RH  065%=      5-min Rain = 0
KMC1 170426Z 18006KT 10/04 A3005 RMK A01 T01010038  RH  065%=      5-min Rain = 0
KMC1 170427Z 17006KT 10/04 A3005 RMK A01 T01000037  RH  065%=      5-min Rain = 0
KMC1 170428Z 17006KT 10/04 A3005 RMK A01 T01000037  RH  065%=      5-min Rain = 0
KMC1 170429Z 17009KT 10/04 A3005 RMK A01 T01000037  RH  065%=      5-min Rain = 0
KMC1 170430Z 18009KT 10/04 A3005 RMK A01 T01000037  RH  065%=      5-min Rain = 0
KMC1 170431Z 18006KT 10/04 A3005 RMK A01 T01010037  RH  065%=      5-min Rain = 0
KMC1 170432Z 18006KT 10/04 A3005 RMK A01 T01010037  RH  065%=      5-min Rain = 0
KMC1 170433Z 18007KT 10/04 A3005 RMK A01 T01000037  RH  065%=      5-min Rain = 0
KMC1 170434Z 18006KT 10/04 A3005 RMK A01 T01000037  RH  065%=      5-min Rain = 0
KMC1 170435Z 18007KT 10/04 A3005 RMK A01 T01000037  RH  065%=      5-min Rain = 0
KMC1 170436Z 17008KT 10/04 A3005 RMK A01 T00990036  RH  065%=      5-min Rain = 0
KMC1 170437Z 17008KT 10/04 A3005 RMK A01 T00990036  RH  065%=      5-min Rain = 0
KMC1 170438Z 17008KT 10/04 A3005 RMK A01 T01000036  RH  065%=      5-min Rain = 0
KMC1 170439Z 17007KT 10/04 A3005 RMK A01 T01000036  RH  064%=      5-min Rain = 0
KMC1 170440Z 17008KT 10/04 A3005 RMK A01 T01000036  RH  064%=      5-min Rain = 0
KMC1 170441Z 17008KT 10/04 A3005 RMK A01 T01000036  RH  064%=      5-min Rain = 0
KMC1 170442Z 17007KT 10/04 A3005 RMK A01 T01000036  RH  064%=      5-min Rain = 0
KMC1 170443Z 18009KT 10/04 A3005 RMK A01 T01000036  RH  064%=      5-min Rain = 0
KMC1 170444Z 18006KT 10/04 A3005 RMK A01 T01000036  RH  064%=      5-min Rain = 0
KMC1 170445Z 17008KT 10/04 A3005 RMK A01 T01000035  RH  064%=      5-min Rain = 0
KMC1 170446Z 18009KT 10/04 A3005 RMK A01 T01000036  RH  064%=      5-min Rain = 0
KMC1 170447Z 17008KT 10/04 A3005 RMK A01 T01000036  RH  064%=      5-min Rain = 0
KMC1 170448Z 18006KT 10/04 A3005 RMK A01 T01000035  RH  064%=      5-min Rain = 0
KMC1 170449Z 18008KT 10/04 A3005 RMK A01 T01000035  RH  064%=      5-min Rain = 0
KMC1 170450Z 17006KT 10/04 A3005 RMK A01 T01000035  RH  064%=      5-min Rain = 0
KMC1 170451Z 17008KT 10/04 A3005 RMK A01 T01000035  RH  064%=      5-min Rain = 0
KMC1 170452Z 17007KT 10/04 A3005 RMK A01 T01000036  RH  064%=      5-min Rain = 0
KMC1 170453Z 17008KT 10/04 A3005 RMK A01 T00990036  RH  064%=      5-min Rain = 0
KMC1 170454Z 17007KT 10/04 A3005 RMK A01 T00990036  RH  065%=      5-min Rain = 0
KMC1 170455Z 17007KT 10/04 A3005 RMK A01 T00990036  RH  065%=      5-min Rain = 0
KMC1 170456Z 17008KT 10/04 A3005 RMK A01 T00990035  RH  064%=      5-min Rain = 0
KMC1 170457Z 16007KT 10/04 A3005 RMK A01 T01000036  RH  065%=      5-min Rain = 0
KMC1 170458Z 17007KT 10/04 A3005 RMK A01 T01000036  RH  065%=      5-min Rain = 0
KMC1 170459Z 18007KT 10/04 A3005 RMK A01 T00990035  RH  065%=      5-min Rain = 0
KMC1 170500Z 17007KT 10/04 A3005 RMK A01 T00990035  RH  065%=      5-min Rain = 0
KMC1 170501Z 17008KT 10/04 A3005 RMK A01 T00980035  RH  065%=      5-min Rain = 0
KMC1 170502Z 17007KT 10/04 A3005 RMK A01 T00980035  RH  065%=      5-min Rain = 0
KMC1 170503Z 17008KT 10/04 A3004 RMK A01 T00980036  RH  065%=      5-min Rain = 0
KMC1 170504Z 18007KT 10/04 A3004 RMK A01 T00980035  RH  065%=      5-min Rain = 0
KMC1 170505Z 17007G12KT 10/04 A3004 RMK A01 T00980035  RH  065%=      5-min Rain = 0
KMC1 170506Z 18009KT 10/04 A3004 RMK A01 T00980036  RH  065%=      5-min Rain = 0
KMC1 170507Z 17008KT 10/04 A3004 RMK A01 T00980035  RH  065%=      5-min Rain = 0
KMC1 170508Z 18009KT 10/04 A3004 RMK A01 T00980035  RH  065%=      5-min Rain = 0
KMC1 170509Z 18008KT 10/04 A3004 RMK A01 T00970035  RH  065%=      5-min Rain = 0
KMC1 170510Z 17007KT 10/04 A3004 RMK A01 T00980035  RH  065%=      5-min Rain = 0
KMC1 170511Z 18008KT 10/04 A3004 RMK A01 T00970035  RH  065%=      5-min Rain = 0
KMC1 170512Z 17008KT 10/04 A3004 RMK A01 T00970035  RH  065%=      5-min Rain = 0
KMC1 170513Z 18006KT 10/04 A3004 RMK A01 T00970035  RH  065%=      5-min Rain = 0
KMC1 170514Z 17007KT 10/04 A3004 RMK A01 T00970035  RH  065%=      5-min Rain = 0
KMC1 170515Z 17008KT 10/04 A3004 RMK A01 T00970035  RH  065%=      5-min Rain = 0
KMC1 170516Z 17007KT 10/04 A3004 RMK A01 T00970035  RH  065%=      5-min Rain = 0
KMC1 170517Z 17008KT 10/04 A3004 RMK A01 T00980035  RH  065%=      5-min Rain = 0
KMC1 170518Z 18007KT 10/04 A3004 RMK A01 T00970035  RH  065%=      5-min Rain = 0
KMC1 170519Z 17007KT 10/04 A3004 RMK A01 T00970035  RH  065%=      5-min Rain = 0
KMC1 170520Z 17006KT 10/04 A3004 RMK A01 T00970035  RH  065%=      5-min Rain = 0
KMC1 170521Z 17008KT 10/04 A3004 RMK A01 T00970035  RH  065%=      5-min Rain = 0
KMC1 170522Z 18009KT 10/04 A3004 RMK A01 T00970035  RH  065%=      5-min Rain = 0
KMC1 170523Z 17009KT 10/04 A3004 RMK A01 T00970035  RH  065%=      5-min Rain = 0
KMC1 170524Z 17008KT 10/03 A3004 RMK A01 T00970034  RH  065%=      5-min Rain = 0
KMC1 170525Z 17006KT 10/03 A3004 RMK A01 T00970034  RH  065%=      5-min Rain = 0
KMC1 170526Z 17008KT 10/04 A3004 RMK A01 T00970035  RH  065%=      5-min Rain = 0
KMC1 170527Z 17009KT 10/03 A3004 RMK A01 T00960034  RH  065%=      5-min Rain = 0
KMC1 170528Z 17007KT 10/03 A3004 RMK A01 T00960034  RH  065%=      5-min Rain = 0
KMC1 170529Z 17006KT 10/03 A3004 RMK A01 T00960034  RH  065%=      5-min Rain = 0
KMC1 170530Z 17005KT 10/03 A3004 RMK A01 T00960034  RH  065%=      5-min Rain = 0
KMC1 170531Z 17007KT 10/03 A3004 RMK A01 T00960034  RH  065%=      5-min Rain = 0
KMC1 170532Z 17006KT 10/03 A3004 RMK A01 T00950034  RH  066%=      5-min Rain = 0
KMC1 170533Z 16007KT 10/03 A3004 RMK A01 T00950034  RH  066%=      5-min Rain = 0
KMC1 170534Z 17005KT 10/03 A3004 RMK A01 T00950034  RH  066%=      5-min Rain = 0
KMC1 170535Z 17005KT 10/03 A3004 RMK A01 T00950034  RH  066%=      5-min Rain = 0
KMC1 170536Z 18005KT 10/03 A3004 RMK A01 T00950034  RH  066%=      5-min Rain = 0
KMC1 170537Z 17007KT 10/03 A3004 RMK A01 T00950034  RH  066%=      5-min Rain = 0
KMC1 170538Z 18007KT 09/03 A3004 RMK A01 T00940034  RH  066%=      5-min Rain = 0
KMC1 170539Z 18005KT 10/03 A3004 RMK A01 T00950034  RH  066%=      5-min Rain = 0
KMC1 170540Z 18005KT 10/03 A3004 RMK A01 T00950034  RH  066%=      5-min Rain = 0
KMC1 170541Z 18006KT 10/03 A3004 RMK A01 T00950034  RH  066%=      5-min Rain = 0
KMC1 170542Z 19007KT 10/03 A3003 RMK A01 T00950034  RH  066%=      5-min Rain = 0
KMC1 170543Z 18006KT 09/03 A3003 RMK A01 T00940033  RH  066%=      5-min Rain = 0
KMC1 170544Z 19005KT 10/03 A3003 RMK A01 T00950033  RH  066%=      5-min Rain = 0
KMC1 170545Z 19005KT 10/03 A3003 RMK A01 T00950033  RH  066%=      5-min Rain = 0
KMC1 170546Z 18006KT 09/03 A3003 RMK A01 T00940033  RH  066%=      5-min Rain = 0
KMC1 170547Z 19005KT 09/03 A3003 RMK A01 T00940033  RH  066%=      5-min Rain = 0
KMC1 170548Z 19005KT 09/03 A3003 RMK A01 T00940033  RH  066%=      5-min Rain = 0
KMC1 170549Z 19005KT 09/03 A3003 RMK A01 T00940033  RH  066%=      5-min Rain = 0
KMC1 170550Z 19003KT 09/03 A3003 RMK A01 T00940033  RH  066%=      5-min Rain = 0
KMC1 170551Z 19003KT 09/03 A3003 RMK A01 T00940033  RH  066%=      5-min Rain = 0
KMC1 170552Z 20005KT 09/03 A3003 RMK A01 T00930033  RH  066%=      5-min Rain = 0
KMC1 170553Z 19005KT 09/03 A3003 RMK A01 T00920033  RH  066%=      5-min Rain = 0
KMC1 170554Z 19005KT 09/03 A3003 RMK A01 T00920032  RH  066%=      5-min Rain = 0
KMC1 170555Z 19004KT 09/03 A3003 RMK A01 T00920032  RH  066%=      5-min Rain = 0
KMC1 170556Z 20005KT 09/03 A3003 RMK A01 T00930033  RH  066%=      5-min Rain = 0
KMC1 170557Z 19006KT 09/03 A3003 RMK A01 T00920033  RH  066%=      5-min Rain = 0
KMC1 170558Z 19004KT 09/03 A3004 RMK A01 T00920033  RH  066%=      5-min Rain = 0
KMC1 170559Z 19005KT 09/03 A3003 RMK A01 T00930033  RH  066%=      5-min Rain = 0

Page generated in 0.07 seconds.